Wetterdaten: Dienstag, 15.11.2022
Datum Zeit Temp. Aussen Temp. o. S. Temp +5cm Feuchte Auss Luftdruck Regen Sonnenschein Regendauer Solar Windben Empfang
15.11.2022 00:00 8,5 C 7,8 C 5,0 C 92 % 1010,1 hPa 0,0 l/m 0 min 0 min 0 W/m 16,1 km/h (3 Bft) 95,65 %
15.11.2022 00:02 8,5 C 7,8 C 5,0 C 92 % 1010,1 hPa 0,0 l/m 0 min 0 min 0 W/m 12,9 km/h (3 Bft) 96,97 %
15.11.2022 00:04 8,6 C 7,8 C 5,0 C 92 % 1010,1 hPa 0,0 l/m 0 min 0 min 0 W/m 16,1 km/h (3 Bft) 93,62 %
15.11.2022 00:08 8,6 C 7,8 C 5,0 C 92 % 1010,0 hPa 0,0 l/m 0 min 0 min 0 W/m 9,7 km/h (2 Bft) 95,05 %
15.11.2022 00:10 8,6 C 8,3 C 5,0 C 92 % 1010,1 hPa 0,0 l/m 0 min 0 min 0 W/m 16,1 km/h (3 Bft) 97,87 %
15.11.2022 00:12 8,6 C 8,3 C 5,0 C 92 % 1010,1 hPa 0,0 l/m 0 min 0 min 0 W/m 6,4 km/h (2 Bft) 93,48 %
15.11.2022 00:14 8,6 C 8,3 C 5,0 C 92 % 1010,1 hPa 0,0 l/m 0 min 0 min 0 W/m 9,7 km/h (2 Bft) 95,74 %
15.11.2022 00:16 8,7 C 8,3 C 5,0 C 92 % 1010,1 hPa 0,0 l/m 0 min 0 min 0 W/m 6,4 km/h (2 Bft) 97,87 %
15.11.2022 00:18 8,7 C 8,3 C 5,0 C 92 % 1010,1 hPa 0,0 l/m 0 min 0 min 0 W/m 6,4 km/h (2 Bft) 93,62 %
15.11.2022 00:20 8,7 C 8,3 C 5,0 C 92 % 1010,1 hPa 0,0 l/m 0 min 2 min 0 W/m 12,9 km/h (3 Bft) 97,87 %
15.11.2022 00:22 8,7 C 8,3 C 5,0 C 92 % 1010,0 hPa 0,0 l/m 0 min 0 min 0 W/m 22,5 km/h (4 Bft) 95,74 %
15.11.2022 00:24 8,8 C 7,8 C 5,0 C 92 % 1010,0 hPa 0,0 l/m 0 min 0 min 0 W/m 6,4 km/h (2 Bft) 97,83 %
15.11.2022 00:26 8,8 C 7,8 C 5,0 C 92 % 1010,0 hPa 0,0 l/m 0 min 0 min 0 W/m 12,9 km/h (3 Bft) 95,74 %
15.11.2022 00:28 8,8 C 7,8 C 5,0 C 92 % 1010,0 hPa 0,0 l/m 0 min 0 min 0 W/m 12,9 km/h (3 Bft) 95,74 %
15.11.2022 00:30 8,8 C 7,8 C 5,0 C 92 % 1009,9 hPa 0,0 l/m 0 min 0 min 0 W/m 12,9 km/h (3 Bft) 97,87 %
15.11.2022 00:32 8,8 C 7,8 C 5,0 C 92 % 1009,9 hPa 0,0 l/m 0 min 0 min 0 W/m 12,9 km/h (3 Bft) 95,74 %
15.11.2022 00:34 8,8 C 8,3 C 5,0 C 92 % 1009,9 hPa 0,0 l/m 0 min 0 min 0 W/m 16,1 km/h (3 Bft) 93,62 %
15.11.2022 00:36 8,8 C 8,3 C 5,0 C 92 % 1010,0 hPa 0,0 l/m 0 min 0 min 0 W/m 12,9 km/h (3 Bft) 95,65 %
15.11.2022 00:38 8,8 C 8,3 C 5,0 C 92 % 1010,0 hPa 0,0 l/m 0 min 0 min 0 W/m 16,1 km/h (3 Bft) 95,74 %
15.11.2022 00:40 8,8 C 8,3 C 5,0 C 93 % 1009,9 hPa 0,0 l/m 0 min 0 min 0 W/m 16,1 km/h (3 Bft) 97,87 %
15.11.2022 00:42 8,8 C 8,3 C 5,0 C 93 % 1009,9 hPa 0,0 l/m 0 min 0 min 0 W/m 12,9 km/h (3 Bft) 97,87 %
15.11.2022 00:44 8,8 C 8,3 C 5,0 C 93 % 1009,9 hPa 0,0 l/m 0 min 0 min 0 W/m 12,9 km/h (3 Bft) 97,87 %
15.11.2022 00:46 8,8 C 8,3 C 5,0 C 93 % 1009,9 hPa 0,0 l/m 0 min 0 min 0 W/m 12,9 km/h (3 Bft) 97,87 %
15.11.2022 00:48 8,8 C 8,3 C 5,0 C 93 % 1009,9 hPa 0,0 l/m 0 min 0 min 0 W/m 12,9 km/h (3 Bft) 95,65 %
15.11.2022 00:50 8,9 C 8,3 C 5,0 C 93 % 1009,9 hPa 0,0 l/m 0 min 0 min 0 W/m 6,4 km/h (2 Bft) 97,87 %
15.11.2022 00:52 8,9 C 8,3 C 5,0 C 93 % 1009,9 hPa 0,0 l/m 0 min 0 min 0 W/m 16,1 km/h (3 Bft) 97,87 %
15.11.2022 00:54 8,9 C 8,3 C 5,0 C 93 % 1009,9 hPa 0,0 l/m 0 min 0 min 0 W/m 16,1 km/h (3 Bft) 95,74 %
15.11.2022 00:56 8,9 C 8,3 C 5,0 C 93 % 1009,8 hPa 0,0 l/m 0 min 0 min 0 W/m 12,9 km/h (3 Bft) 93,62 %
15.11.2022 00:58 8,9 C 8,3 C 5,0 C 93 % 1009,8 hPa 0,0 l/m 0 min 0 min 0 W/m 16,1 km/h (3 Bft) 95,74 %
15.11.2022 01:00 8,9 C 8,3 C 5,0 C 93 % 1009,7 hPa 0,0 l/m 0 min 0 min 0 W/m 12,9 km/h (3 Bft) 97,83 %
15.11.2022 01:02 8,9 C 8,3 C 5,0 C 93 % 1009,8 hPa 0,0 l/m 0 min 0 min 0 W/m 6,4 km/h (2 Bft) 97,87 %
15.11.2022 01:04 8,9 C 8,3 C 5,0 C 93 % 1009,7 hPa 0,0 l/m 0 min 0 min 0 W/m 12,9 km/h (3 Bft) 100,00 %
15.11.2022 01:06 8,9 C 8,3 C 5,0 C 93 % 1009,8 hPa 0,0 l/m 0 min 0 min 0 W/m 9,7 km/h (2 Bft) 100,00 %
15.11.2022 01:08 9,0 C 8,3 C 5,0 C 93 % 1009,8 hPa 0,0 l/m 0 min 0 min 0 W/m 12,9 km/h (3 Bft) 97,87 %
15.11.2022 01:10 9,0 C 8,3 C 5,0 C 93 % 1009,7 hPa 0,0 l/m 0 min 0 min 0 W/m 12,9 km/h (3 Bft) 100,00 %
15.11.2022 01:12 9,0 C 8,3 C 5,0 C 93 % 1009,7 hPa 0,0 l/m 0 min 0 min 0 W/m 16,1 km/h (3 Bft) 100,00 %
15.11.2022 01:14 9,1 C 8,3 C 5,0 C 93 % 1009,8 hPa 0,0 l/m 0 min 0 min 0 W/m 16,1 km/h (3 Bft) 100,00 %
15.11.2022 01:16 9,1 C 8,3 C 5,6 C 93 % 1009,8 hPa 0,0 l/m 0 min 0 min 0 W/m 12,9 km/h (3 Bft) 97,87 %
15.11.2022 01:18 9,1 C 8,3 C 5,6 C 93 % 1009,8 hPa 0,0 l/m 0 min 0 min 0 W/m 6,4 km/h (2 Bft) 100,00 %
15.11.2022 01:20 9,1 C 8,3 C 5,6 C 94 % 1009,8 hPa 0,0 l/m 0 min 0 min 0 W/m 12,9 km/h (3 Bft) 98,00 %
15.11.2022 01:22 9,1 C 8,3 C 5,6 C 94 % 1009,8 hPa 0,0 l/m 0 min 0 min 0 W/m 12,9 km/h (3 Bft) 97,83 %
15.11.2022 01:24 9,2 C 8,3 C 5,6 C 94 % 1009,7 hPa 0,0 l/m 0 min 0 min 0 W/m 12,9 km/h (3 Bft) 100,00 %
15.11.2022 01:26 9,2 C 8,3 C 5,6 C 94 % 1009,7 hPa 0,0 l/m 0 min 0 min 0 W/m 6,4 km/h (2 Bft) 97,87 %
15.11.2022 01:28 9,2 C 8,9 C 5,6 C 94 % 1009,7 hPa 0,0 l/m 0 min 0 min 0 W/m 12,9 km/h (3 Bft) 100,00 %
15.11.2022 01:30 9,2 C 8,9 C 5,6 C 94 % 1009,6 hPa 0,0 l/m 0 min 0 min 0 W/m 12,9 km/h (3 Bft) 100,00 %
15.11.2022 01:32 9,2 C 8,9 C 5,6 C 94 % 1009,6 hPa 0,0 l/m 0 min 0 min 0 W/m 6,4 km/h (2 Bft) 100,00 %
15.11.2022 01:34 9,2 C 8,9 C 5,6 C 94 % 1009,6 hPa 0,0 l/m 0 min 0 min 0 W/m 12,9 km/h (3 Bft) 97,83 %
15.11.2022 01:36 9,3 C 8,9 C 5,6 C 94 % 1009,6 hPa 0,0 l/m 0 min 0 min 0 W/m 12,9 km/h (3 Bft) 95,74 %
15.11.2022 01:38 9,3 C 8,9 C 5,6 C 94 % 1009,5 hPa 0,0 l/m 0 min 0 min 0 W/m 12,9 km/h (3 Bft) 100,00 %
15.11.2022 01:40 9,3 C 8,9 C 5,6 C 94 % 1009,5 hPa 0,0 l/m 0 min 0 min 0 W/m 6,4 km/h (2 Bft) 100,00 %
15.11.2022 01:42 9,3 C 8,9 C 5,6 C 94 % 1009,6 hPa 0,0 l/m 0 min 0 min 0 W/m 12,9 km/h (3 Bft) 97,87 %
15.11.2022 01:44 9,3 C 8,9 C 5,6 C 94 % 1009,6 hPa 0,0 l/m 0 min 0 min 0 W/m 12,9 km/h (3 Bft) 100,00 %
15.11.2022 01:46 9,3 C 8,9 C 5,6 C 94 % 1009,7 hPa 0,0 l/m 0 min 0 min 0 W/m 12,9 km/h (3 Bft) 97,87 %
15.11.2022 01:48 9,4 C 8,9 C 5,6 C 94 % 1009,7 hPa 0,0 l/m 0 min 0 min 0 W/m 12,9 km/h (3 Bft) 100,00 %
15.11.2022 01:50 9,4 C 8,9 C 5,6 C 94 % 1009,6 hPa 0,0 l/m 0 min 0 min 0 W/m 6,4 km/h (2 Bft) 100,00 %
15.11.2022 01:52 9,4 C 8,9 C 5,6 C 94 % 1009,6 hPa 0,0 l/m 0 min 0 min 0 W/m 6,4 km/h (2 Bft) 97,87 %
15.11.2022 01:54 9,4 C 8,9 C 5,6 C 94 % 1009,5 hPa 0,0 l/m 0 min 0 min 0 W/m 6,4 km/h (2 Bft) 97,87 %
15.11.2022 01:56 9,4 C 8,9 C 5,6 C 94 % 1009,5 hPa 0,0 l/m 0 min 0 min 0 W/m 6,4 km/h (2 Bft) 100,00 %
15.11.2022 01:58 9,5 C 8,9 C 5,6 C 94 % 1009,5 hPa 0,0 l/m 0 min 0 min 0 W/m 6,4 km/h (2 Bft) 100,00 %
15.11.2022 02:00 9,5 C 8,9 C 5,6 C 94 % 1009,4 hPa 0,0 l/m 0 min 0 min 0 W/m 12,9 km/h (3 Bft) 97,87 %
15.11.2022 02:02 9,5 C 8,9 C 5,6 C 94 % 1009,4 hPa 0,0 l/m 0 min 0 min 0 W/m 6,4 km/h (2 Bft) 97,87 %
15.11.2022 02:04 9,5 C 8,9 C 5,6 C 94 % 1009,4 hPa 0,0 l/m 0 min 0 min 0 W/m 12,9 km/h (3 Bft) 100,00 %
15.11.2022 02:06 9,6 C 8,9 C 5,6 C 94 % 1009,6 hPa 0,0 l/m 0 min 0 min 0 W/m 12,9 km/h (3 Bft) 97,87 %
15.11.2022 02:08 9,6 C 8,9 C 5,6 C 94 % 1009,6 hPa 0,0 l/m 0 min 0 min 0 W/m 16,1 km/h (3 Bft) 97,87 %
15.11.2022 02:10 9,6 C 8,9 C 5,6 C 94 % 1009,6 hPa 0,0 l/m 0 min 0 min 0 W/m 19,3 km/h (3 Bft) 97,83 %
15.11.2022 02:14 9,6 C 8,9 C 5,6 C 94 % 1009,5 hPa 0,0 l/m 0 min 0 min 0 W/m 6,4 km/h (2 Bft) 100,00 %
15.11.2022 02:16 9,6 C 8,9 C 5,6 C 94 % 1009,5 hPa 0,0 l/m 0 min 0 min 0 W/m 3,2 km/h (1 Bft) 97,87 %
15.11.2022 02:18 9,7 C 8,9 C 5,6 C 94 % 1009,5 hPa 0,0 l/m 0 min 0 min 0 W/m 6,4 km/h (2 Bft) 97,87 %
15.11.2022 02:20 9,7 C 8,9 C 6,1 C 94 % 1009,5 hPa 0,0 l/m 0 min 0 min 0 W/m 16,1 km/h (3 Bft) 93,48 %
15.11.2022 02:22 9,7 C 9,4 C 6,1 C 94 % 1009,4 hPa 0,0 l/m 0 min 0 min 0 W/m 6,4 km/h (2 Bft) 97,87 %
15.11.2022 02:24 9,7 C 8,9 C 6,1 C 94 % 1009,5 hPa 0,0 l/m 0 min 0 min 0 W/m 3,2 km/h (1 Bft) 97,87 %
15.11.2022 02:26 9,7 C 9,4 C 6,1 C 94 % 1009,4 hPa 0,0 l/m 0 min 0 min 0 W/m 6,4 km/h (2 Bft) 95,74 %
15.11.2022 02:28 9,7 C 9,4 C 6,1 C 94 % 1009,4 hPa 0,0 l/m 0 min 0 min 0 W/m 12,9 km/h (3 Bft) 93,62 %
15.11.2022 02:30 9,8 C 9,4 C 6,1 C 94 % 1009,4 hPa 0,0 l/m 0 min 0 min 0 W/m 3,2 km/h (1 Bft) 95,74 %
15.11.2022 02:32 9,8 C 9,4 C 6,1 C 95 % 1009,4 hPa 0,0 l/m 0 min 0 min 0 W/m 6,4 km/h (2 Bft) 95,65 %
15.11.2022 02:34 9,8 C 9,4 C 6,1 C 95 % 1009,3 hPa 0,0 l/m 0 min 0 min 0 W/m 6,4 km/h (2 Bft) 97,87 %
15.11.2022 02:36 9,8 C 9,4 C 6,1 C 95 % 1009,3 hPa 0,0 l/m 0 min 0 min 0 W/m 6,4 km/h (2 Bft) 95,74 %
15.11.2022 02:38 9,8 C 9,4 C 6,1 C 95 % 1009,4 hPa 0,0 l/m 0 min 0 min 0 W/m 16,1 km/h (3 Bft) 91,49 %
15.11.2022 02:40 9,8 C 9,4 C 6,1 C 95 % 1009,4 hPa 0,0 l/m 0 min 0 min 0 W/m 12,9 km/h (3 Bft) 95,74 %
15.11.2022 02:42 9,8 C 9,4 C 6,1 C 95 % 1009,4 hPa 0,0 l/m 0 min 0 min 0 W/m 6,4 km/h (2 Bft) 97,87 %
15.11.2022 02:44 9,8 C 9,4 C 6,1 C 94 % 1009,3 hPa 0,0 l/m 0 min 0 min 0 W/m 6,4 km/h (2 Bft) 89,13 %
15.11.2022 02:46 9,9 C 9,4 C 6,1 C 94 % 1009,3 hPa 0,0 l/m 0 min 0 min 0 W/m 6,4 km/h (2 Bft) 93,62 %
15.11.2022 02:48 9,9 C 9,4 C 6,1 C 94 % 1009,3 hPa 0,0 l/m 0 min 0 min 0 W/m 6,4 km/h (2 Bft) 93,62 %
15.11.2022 02:50 9,9 C 9,4 C 6,1 C 94 % 1009,3 hPa 0,0 l/m 0 min 0 min 0 W/m 3,2 km/h (1 Bft) 91,49 %
15.11.2022 02:52 9,9 C 9,4 C 6,1 C 95 % 1009,2 hPa 0,0 l/m 0 min 0 min 0 W/m 3,2 km/h (1 Bft) 93,62 %
15.11.2022 02:54 9,9 C 9,4 C 6,1 C 95 % 1009,3 hPa 0,0 l/m 0 min 0 min 0 W/m 6,4 km/h (2 Bft) 93,48 %
15.11.2022 02:56 9,9 C 9,4 C 6,1 C 95 % 1009,3 hPa 0,0 l/m 0 min 0 min 0 W/m 12,9 km/h (3 Bft) 95,74 %
15.11.2022 02:58 9,9 C 9,4 C 6,1 C 95 % 1009,2 hPa 0,0 l/m 0 min 0 min 0 W/m 6,4 km/h (2 Bft) 95,74 %
15.11.2022 03:00 10,0 C 9,4 C 6,1 C 95 % 1009,2 hPa 0,0 l/m 0 min 0 min 0 W/m 9,7 km/h (2 Bft) 93,62 %
15.11.2022 03:02 10,0 C 9,4 C 6,1 C 95 % 1009,2 hPa 0,0 l/m 0 min 0 min 0 W/m 6,4 km/h (2 Bft) 97,87 %
15.11.2022 03:04 10,0 C 9,4 C 6,1 C 95 % 1009,1 hPa 0,0 l/m 0 min 0 min 0 W/m 6,4 km/h (2 Bft) 97,87 %
15.11.2022 03:06 10,0 C 9,4 C 6,1 C 95 % 1009,0 hPa 0,0 l/m 0 min 0 min 0 W/m 6,4 km/h (2 Bft) 95,65 %
15.11.2022 03:08 10,0 C 9,4 C 6,1 C 95 % 1009,1 hPa 0,0 l/m 0 min 0 min 0 W/m 3,2 km/h (1 Bft) 97,87 %
15.11.2022 03:10 10,0 C 9,4 C 6,1 C 95 % 1009,0 hPa 0,0 l/m 0 min 0 min 0 W/m 6,4 km/h (2 Bft) 100,00 %
15.11.2022 03:12 10,0 C 9,4 C 6,1 C 95 % 1009,1 hPa 0,0 l/m 0 min 0 min 0 W/m 6,4 km/h (2 Bft) 95,74 %
15.11.2022 03:14 10,0 C 9,4 C 6,1 C 95 % 1009,1 hPa 0,0 l/m 0 min 0 min 0 W/m 12,9 km/h (3 Bft) 97,87 %
15.11.2022 03:16 10,1 C 9,4 C 6,1 C 95 % 1009,1 hPa 0,0 l/m 0 min 0 min 0 W/m 12,9 km/h (3 Bft) 97,62 %
15.11.2022 03:18 10,1 C 9,4 C 6,1 C 95 % 1009,1 hPa 0,0 l/m 0 min 0 min 0 W/m 12,9 km/h (3 Bft) 98,00 %
15.11.2022 03:20 10,1 C 9,4 C 6,1 C 95 % 1009,0 hPa 0,0 l/m 0 min 0 min 0 W/m 16,1 km/h (3 Bft) 97,92 %
15.11.2022 03:22 10,1 C 9,4 C 6,1 C 95 % 1009,1 hPa 0,0 l/m 0 min 0 min 0 W/m 6,4 km/h (2 Bft) 97,87 %
15.11.2022 03:24 10,1 C 9,4 C 6,1 C 95 % 1009,0 hPa 0,0 l/m 0 min 0 min 0 W/m 9,7 km/h (2 Bft) 97,62 %
15.11.2022 03:26 10,1 C 9,4 C 6,1 C 95 % 1009,0 hPa 0,0 l/m 0 min 0 min 0 W/m 6,4 km/h (2 Bft) 93,88 %
15.11.2022 03:28 10,1 C 9,4 C 6,1 C 95 % 1009,0 hPa 0,0 l/m 0 min 0 min 0 W/m 6,4 km/h (2 Bft) 97,87 %
15.11.2022 03:30 10,1 C 9,4 C 6,1 C 95 % 1009,0 hPa 0,0 l/m 0 min 0 min 0 W/m 6,4 km/h (2 Bft) 95,74 %
15.11.2022 03:32 10,1 C 9,4 C 6,1 C 95 % 1008,9 hPa 0,0 l/m 0 min 0 min 0 W/m 6,4 km/h (2 Bft) 97,87 %
15.11.2022 03:34 10,2 C 9,4 C 6,1 C 95 % 1008,9 hPa 0,0 l/m 0 min 0 min 0 W/m 16,1 km/h (3 Bft) 97,87 %
15.11.2022 03:36 10,2 C 9,4 C 6,7 C 95 % 1008,9 hPa 0,0 l/m 0 min 0 min 0 W/m 12,9 km/h (3 Bft) 97,87 %
15.11.2022 03:38 10,2 C 9,4 C 6,7 C 95 % 1008,9 hPa 0,0 l/m 0 min 0 min 0 W/m 6,4 km/h (2 Bft) 97,83 %
15.11.2022 03:40 10,2 C 9,4 C 6,7 C 95 % 1008,9 hPa 0,0 l/m 0 min 0 min 0 W/m 6,4 km/h (2 Bft) 100,00 %
15.11.2022 03:42 10,2 C 9,4 C 6,7 C 95 % 1008,9 hPa 0,0 l/m 0 min 0 min 0 W/m 12,9 km/h (3 Bft) 100,00 %
15.11.2022 03:44 10,3 C 10,0 C 6,7 C 95 % 1009,0 hPa 0,0 l/m 0 min 0 min 0 W/m 6,4 km/h (2 Bft) 100,00 %
15.11.2022 03:46 10,3 C 10,0 C 6,7 C 95 % 1009,0 hPa 0,0 l/m 0 min 0 min 0 W/m 12,9 km/h (3 Bft) 97,87 %
15.11.2022 03:48 10,3 C 10,0 C 6,7 C 95 % 1009,0 hPa 0,0 l/m 0 min 0 min 0 W/m 16,1 km/h (3 Bft) 97,83 %
15.11.2022 03:50 10,3 C 10,0 C 6,7 C 95 % 1008,9 hPa 0,0 l/m 0 min 0 min 0 W/m 12,9 km/h (3 Bft) 100,00 %
15.11.2022 03:52 10,4 C 10,0 C 6,7 C 95 % 1008,9 hPa 0,0 l/m 0 min 0 min 0 W/m 12,9 km/h (3 Bft) 97,87 %
15.11.2022 03:54 10,4 C 10,0 C 6,7 C 95 % 1008,9 hPa 0,0 l/m 0 min 0 min 0 W/m 16,1 km/h (3 Bft) 100,00 %
15.11.2022 03:56 10,4 C 10,0 C 6,7 C 95 % 1008,9 hPa 0,0 l/m 0 min 0 min 0 W/m 16,1 km/h (3 Bft) 97,87 %
15.11.2022 03:58 10,4 C 10,0 C 6,7 C 95 % 1008,9 hPa 0,0 l/m 0 min 0 min 0 W/m 12,9 km/h (3 Bft) 100,00 %
15.11.2022 04:00 10,4 C 10,0 C 6,7 C 95 % 1008,9 hPa 0,0 l/m 0 min 0 min 0 W/m 6,4 km/h (2 Bft) 97,83 %
15.11.2022 04:02 10,5 C 10,0 C 6,7 C 95 % 1008,9 hPa 0,0 l/m 0 min 0 min 0 W/m 12,9 km/h (3 Bft) 97,87 %
15.11.2022 04:04 10,5 C 10,0 C 6,7 C 95 % 1008,9 hPa 0,0 l/m 0 min 0 min 0 W/m 12,9 km/h (3 Bft) 100,00 %
15.11.2022 04:06 10,6 C 10,0 C 6,7 C 95 % 1008,8 hPa 0,0 l/m 0 min 0 min 0 W/m 9,7 km/h (2 Bft) 98,31 %
15.11.2022 04:08 10,6 C 10,0 C 6,7 C 95 % 1008,8 hPa 0,0 l/m 0 min 0 min 0 W/m 12,9 km/h (3 Bft) 100,00 %
15.11.2022 04:10 10,6 C 10,0 C 6,7 C 95 % 1008,8 hPa 0,0 l/m 0 min 0 min 0 W/m 6,4 km/h (2 Bft) 100,00 %
15.11.2022 04:12 10,6 C 10,0 C 6,7 C 95 % 1008,8 hPa 0,0 l/m 0 min 0 min 0 W/m 6,4 km/h (2 Bft) 100,00 %
15.11.2022 04:14 10,6 C 10,0 C 6,7 C 95 % 1008,8 hPa 0,0 l/m 0 min 0 min 0 W/m 6,4 km/h (2 Bft) 100,00 %
15.11.2022 04:16 10,6 C 10,0 C 6,7 C 95 % 1008,7 hPa 0,0 l/m 0 min 0 min 0 W/m 6,4 km/h (2 Bft) 100,00 %
15.11.2022 04:18 10,6 C 10,0 C 6,7 C 95 % 1008,7 hPa 0,0 l/m 0 min 0 min 0 W/m 6,4 km/h (2 Bft) 97,87 %
15.11.2022 04:20 10,7 C 10,0 C 6,7 C 95 % 1008,7 hPa 0,0 l/m 0 min 0 min 0 W/m 6,4 km/h (2 Bft) 100,00 %
15.11.2022 04:22 10,7 C 10,0 C 6,7 C 95 % 1008,7 hPa 0,0 l/m 0 min 0 min 0 W/m 9,7 km/h (2 Bft) 97,87 %
15.11.2022 04:24 10,7 C 10,0 C 6,7 C 95 % 1008,7 hPa 0,0 l/m 0 min 0 min 0 W/m 12,9 km/h (3 Bft) 100,00 %
15.11.2022 04:26 10,7 C 10,0 C 6,7 C 95 % 1008,7 hPa 0,0 l/m 0 min 0 min 0 W/m 6,4 km/h (2 Bft) 100,00 %
15.11.2022 04:28 10,7 C 10,0 C 6,7 C 95 % 1008,7 hPa 0,0 l/m 0 min 0 min 0 W/m 6,4 km/h (2 Bft) 97,87 %
15.11.2022 04:30 10,8 C 10,0 C 7,2 C 95 % 1008,7 hPa 0,0 l/m 0 min 0 min 0 W/m 12,9 km/h (3 Bft) 97,87 %
15.11.2022 04:32 10,8 C 10,6 C 7,2 C 95 % 1008,7 hPa 0,0 l/m 0 min 0 min 0 W/m 16,1 km/h (3 Bft) 97,87 %
15.11.2022 04:34 10,8 C 10,6 C 7,2 C 95 % 1008,6 hPa 0,0 l/m 0 min 0 min 0 W/m 12,9 km/h (3 Bft) 97,87 %
15.11.2022 04:36 10,8 C 10,6 C 7,2 C 95 % 1008,7 hPa 0,0 l/m 0 min 0 min 0 W/m 12,9 km/h (3 Bft) 97,83 %
15.11.2022 04:38 10,8 C 10,6 C 7,2 C 95 % 1008,6 hPa 0,0 l/m 0 min 0 min 0 W/m 6,4 km/h (2 Bft) 93,62 %
15.11.2022 04:40 10,9 C 10,6 C 7,2 C 95 % 1008,6 hPa 0,0 l/m 0 min 0 min 0 W/m 16,1 km/h (3 Bft) 97,87 %
15.11.2022 04:42 10,9 C 10,6 C 7,2 C 95 % 1008,6 hPa 0,0 l/m 0 min 0 min 0 W/m 16,1 km/h (3 Bft) 97,87 %
15.11.2022 04:44 10,9 C 10,6 C 7,2 C 95 % 1008,6 hPa 0,0 l/m 0 min 0 min 0 W/m 12,9 km/h (3 Bft) 95,74 %
15.11.2022 04:46 10,9 C 10,6 C 7,2 C 95 % 1008,6 hPa 0,0 l/m 0 min 0 min 0 W/m 12,9 km/h (3 Bft) 97,87 %
15.11.2022 04:48 10,9 C 10,6 C 7,2 C 95 % 1008,6 hPa 0,0 l/m 0 min 0 min 0 W/m 6,4 km/h (2 Bft) 95,65 %
15.11.2022 04:50 11,0 C 10,6 C 7,2 C 95 % 1008,5 hPa 0,0 l/m 0 min 0 min 0 W/m 6,4 km/h (2 Bft) 95,74 %
15.11.2022 04:52 11,0 C 10,6 C 7,2 C 95 % 1008,5 hPa 0,0 l/m 0 min 0 min 0 W/m 6,4 km/h (2 Bft) 97,87 %
15.11.2022 04:54 11,0 C 10,6 C 7,2 C 95 % 1008,5 hPa 0,0 l/m 0 min 0 min 0 W/m 6,4 km/h (2 Bft) 93,62 %
15.11.2022 04:56 11,0 C 10,6 C 7,2 C 95 % 1008,5 hPa 0,0 l/m 0 min 0 min 0 W/m 6,4 km/h (2 Bft) 93,62 %
15.11.2022 04:58 11,0 C 10,6 C 7,2 C 95 % 1008,5 hPa 0,0 l/m 0 min 0 min 0 W/m 6,4 km/h (2 Bft) 95,74 %
15.11.2022 05:00 11,0 C 10,6 C 7,2 C 95 % 1008,5 hPa 0,0 l/m 0 min 0 min 0 W/m 6,4 km/h (2 Bft) 95,65 %
15.11.2022 05:02 11,1 C 10,6 C 7,2 C 95 % 1008,5 hPa 0,0 l/m 0 min 0 min 0 W/m 16,1 km/h (3 Bft) 95,74 %
15.11.2022 05:04 11,1 C 10,6 C 7,2 C 95 % 1008,5 hPa 0,0 l/m 0 min 0 min 0 W/m 16,1 km/h (3 Bft) 97,87 %
15.11.2022 05:06 11,1 C 10,6 C 7,2 C 95 % 1008,5 hPa 0,0 l/m 0 min 0 min 0 W/m 19,3 km/h (3 Bft) 98,31 %
15.11.2022 05:08 11,1 C 10,6 C 7,2 C 95 % 1008,4 hPa 0,0 l/m 0 min 0 min 0 W/m 12,9 km/h (3 Bft) 97,14 %
15.11.2022 05:10 11,1 C 10,6 C 7,2 C 95 % 1008,4 hPa 0,0 l/m 0 min 0 min 0 W/m 6,4 km/h (2 Bft) 95,74 %
15.11.2022 05:12 11,1 C 10,6 C 7,2 C 95 % 1008,4 hPa 0,0 l/m 0 min 0 min 0 W/m 12,9 km/h (3 Bft) 97,83 %
15.11.2022 05:14 11,2 C 10,6 C 7,2 C 95 % 1008,4 hPa 0,0 l/m 0 min 0 min 0 W/m 12,9 km/h (3 Bft) 97,87 %
15.11.2022 05:16 11,2 C 10,6 C 7,2 C 95 % 1008,5 hPa 0,0 l/m 0 min 0 min 0 W/m 12,9 km/h (3 Bft) 97,87 %
15.11.2022 05:18 11,2 C 10,6 C 7,2 C 95 % 1008,4 hPa 0,0 l/m 0 min 0 min 0 W/m 12,9 km/h (3 Bft) 97,87 %
15.11.2022 05:20 11,2 C 10,6 C 7,2 C 95 % 1008,5 hPa 0,0 l/m 0 min 0 min 0 W/m 6,4 km/h (2 Bft) 95,74 %
15.11.2022 05:22 11,2 C 10,6 C 7,2 C 95 % 1008,5 hPa 0,0 l/m 0 min 0 min 0 W/m 12,9 km/h (3 Bft) 97,87 %
15.11.2022 05:24 11,2 C 10,6 C 7,2 C 95 % 1008,5 hPa 0,0 l/m 0 min 0 min 0 W/m 12,9 km/h (3 Bft) 97,83 %
15.11.2022 05:26 11,3 C 10,6 C 7,2 C 95 % 1008,5 hPa 0,0 l/m 0 min 0 min 0 W/m 6,4 km/h (2 Bft) 93,62 %
15.11.2022 05:28 11,3 C 10,6 C 7,2 C 95 % 1008,5 hPa 0,0 l/m 0 min 0 min 0 W/m 12,9 km/h (3 Bft) 97,87 %
15.11.2022 05:30 11,3 C 10,6 C 7,2 C 95 % 1008,5 hPa 0,0 l/m 0 min 0 min 0 W/m 6,4 km/h (2 Bft) 97,87 %
15.11.2022 05:32 11,3 C 10,6 C 7,2 C 95 % 1008,5 hPa 0,0 l/m 0 min 0 min 0 W/m 6,4 km/h (2 Bft) 93,62 %
15.11.2022 05:34 11,3 C 10,6 C 7,2 C 95 % 1008,5 hPa 0,0 l/m 0 min 0 min 0 W/m 16,1 km/h (3 Bft) 95,74 %
15.11.2022 05:36 11,3 C 10,6 C 7,2 C 94 % 1008,4 hPa 0,0 l/m 0 min 0 min 0 W/m 12,9 km/h (3 Bft) 97,83 %
15.11.2022 05:38 11,3 C 10,6 C 7,2 C 94 % 1008,5 hPa 0,0 l/m 0 min 0 min 0 W/m 6,4 km/h (2 Bft) 95,74 %
15.11.2022 05:40 11,3 C 10,6 C 7,2 C 94 % 1008,4 hPa 0,0 l/m 0 min 0 min 0 W/m 6,4 km/h (2 Bft) 93,62 %
15.11.2022 05:42 11,4 C 10,6 C 7,2 C 94 % 1008,4 hPa 0,0 l/m 0 min 0 min 0 W/m 12,9 km/h (3 Bft) 95,74 %
15.11.2022 05:44 11,4 C 10,6 C 7,8 C 94 % 1008,4 hPa 0,0 l/m 0 min 0 min 0 W/m 16,1 km/h (3 Bft) 97,87 %
15.11.2022 05:46 11,4 C 10,6 C 7,8 C 94 % 1008,4 hPa 0,0 l/m 0 min 0 min 0 W/m 16,1 km/h (3 Bft) 97,87 %
15.11.2022 05:48 11,4 C 10,6 C 7,2 C 94 % 1008,5 hPa 0,0 l/m 0 min 0 min 0 W/m 6,4 km/h (2 Bft) 93,48 %
15.11.2022 05:50 11,4 C 10,6 C 7,2 C 94 % 1008,4 hPa 0,0 l/m 0 min 0 min 0 W/m 16,1 km/h (3 Bft) 97,87 %
15.11.2022 05:52 11,4 C 10,6 C 7,2 C 94 % 1008,5 hPa 0,0 l/m 0 min 0 min 0 W/m 3,2 km/h (1 Bft) 97,87 %
15.11.2022 05:54 11,4 C 10,6 C 7,2 C 94 % 1008,4 hPa 0,0 l/m 0 min 0 min 0 W/m 12,9 km/h (3 Bft) 97,87 %
15.11.2022 05:56 11,4 C 10,6 C 7,2 C 94 % 1008,4 hPa 0,0 l/m 0 min 0 min 0 W/m 3,2 km/h (1 Bft) 97,87 %
15.11.2022 05:58 11,4 C 10,6 C 7,2 C 94 % 1008,4 hPa 0,0 l/m 0 min 0 min 0 W/m 12,9 km/h (3 Bft) 95,74 %
15.11.2022 06:00 11,4 C 10,6 C 7,2 C 94 % 1008,4 hPa 0,0 l/m 0 min 0 min 0 W/m 12,9 km/h (3 Bft) 95,65 %
15.11.2022 06:02 11,4 C 10,6 C 7,2 C 94 % 1008,4 hPa 0,0 l/m 0 min 0 min 0 W/m 12,9 km/h (3 Bft) 97,87 %
15.11.2022 06:04 11,4 C 10,6 C 7,2 C 94 % 1008,4 hPa 0,0 l/m 0 min 0 min 0 W/m 12,9 km/h (3 Bft) 97,87 %
15.11.2022 06:07 11,4 C 10,6 C 7,2 C 94 % 1008,5 hPa 0,0 l/m 0 min 0 min 0 W/m 12,9 km/h (3 Bft) 97,87 %
15.11.2022 06:10 11,4 C 10,6 C 7,2 C 94 % 1008,5 hPa 0,0 l/m 0 min 0 min 0 W/m 12,9 km/h (3 Bft) 96,53 %
15.11.2022 06:12 11,4 C 10,6 C 7,8 C 94 % 1008,4 hPa 0,0 l/m 0 min 0 min 0 W/m 16,1 km/h (3 Bft) 95,74 %
15.11.2022 06:14 11,4 C 10,6 C 7,8 C 94 % 1008,5 hPa 0,0 l/m 0 min 0 min 0 W/m 6,4 km/h (2 Bft) 93,62 %
15.11.2022 06:16 11,4 C 10,6 C 7,2 C 94 % 1008,4 hPa 0,0 l/m 0 min 0 min 0 W/m 6,4 km/h (2 Bft) 95,65 %
15.11.2022 06:18 11,4 C 10,6 C 7,2 C 94 % 1008,5 hPa 0,0 l/m 0 min 0 min 0 W/m 12,9 km/h (3 Bft) 93,62 %
15.11.2022 06:20 11,4 C 10,6 C 7,2 C 94 % 1008,5 hPa 0,0 l/m 0 min 0 min 0 W/m 6,4 km/h (2 Bft) 97,87 %
15.11.2022 06:22 11,4 C 10,6 C 7,2 C 94 % 1008,5 hPa 0,0 l/m 0 min 0 min 0 W/m 6,4 km/h (2 Bft) 100,00 %
15.11.2022 06:24 11,4 C 10,6 C 7,2 C 94 % 1008,4 hPa 0,0 l/m 0 min 0 min 0 W/m 6,4 km/h (2 Bft) 95,74 %
15.11.2022 06:26 11,4 C 10,6 C 7,2 C 94 % 1008,4 hPa 0,0 l/m 0 min 0 min 0 W/m 12,9 km/h (3 Bft) 97,87 %
15.11.2022 06:28 11,4 C 10,6 C 7,2 C 94 % 1008,4 hPa 0,0 l/m 0 min 0 min 0 W/m 6,4 km/h (2 Bft) 95,65 %
15.11.2022 06:30 11,4 C 10,6 C 7,2 C 94 % 1008,4 hPa 0,0 l/m 0 min 0 min 0 W/m 3,2 km/h (1 Bft) 95,74 %
15.11.2022 06:32 11,4 C 10,6 C 7,2 C 94 % 1008,4 hPa 0,0 l/m 0 min 0 min 0 W/m 12,9 km/h (3 Bft) 97,87 %
15.11.2022 06:34 11,4 C 10,6 C 7,2 C 94 % 1008,3 hPa 0,0 l/m 0 min 0 min 0 W/m 3,2 km/h (1 Bft) 97,87 %
15.11.2022 06:36 11,4 C 10,6 C 7,2 C 94 % 1008,3 hPa 0,0 l/m 0 min 0 min 0 W/m 12,9 km/h (3 Bft) 95,74 %
15.11.2022 06:38 11,4 C 10,6 C 7,2 C 94 % 1008,3 hPa 0,0 l/m 0 min 0 min 0 W/m 6,4 km/h (2 Bft) 95,74 %
15.11.2022 06:40 11,4 C 10,6 C 7,2 C 94 % 1008,2 hPa 0,0 l/m 0 min 0 min 0 W/m 12,9 km/h (3 Bft) 97,83 %
15.11.2022 06:42 11,4 C 10,6 C 7,2 C 94 % 1008,2 hPa 0,0 l/m 0 min 0 min 0 W/m 6,4 km/h (2 Bft) 95,74 %
15.11.2022 06:44 11,4 C 10,6 C 7,2 C 94 % 1008,2 hPa 0,0 l/m 0 min 0 min 0 W/m 6,4 km/h (2 Bft) 97,87 %
15.11.2022 06:46 11,4 C 10,6 C 7,2 C 94 % 1008,2 hPa 0,0 l/m 0 min 0 min 0 W/m 6,4 km/h (2 Bft) 95,74 %
15.11.2022 06:48 11,4 C 10,6 C 7,2 C 94 % 1008,2 hPa 0,0 l/m 0 min 0 min 0 W/m 6,4 km/h (2 Bft) 91,49 %
15.11.2022 06:50 11,4 C 10,6 C 7,2 C 94 % 1008,2 hPa 0,0 l/m 0 min 0 min 0 W/m 6,4 km/h (2 Bft) 97,87 %
15.11.2022 06:52 11,4 C 10,6 C 7,2 C 94 % 1008,1 hPa 0,0 l/m 0 min 0 min 0 W/m 6,4 km/h (2 Bft) 95,65 %
15.11.2022 06:54 11,4 C 10,6 C 7,2 C 94 % 1008,3 hPa 0,0 l/m 0 min 0 min 0 W/m 6,4 km/h (2 Bft) 91,49 %
15.11.2022 06:56 11,4 C 10,6 C 7,2 C 94 % 1008,3 hPa 0,0 l/m 0 min 0 min 0 W/m 6,4 km/h (2 Bft) 93,62 %
15.11.2022 06:58 11,4 C 10,6 C 7,2 C 94 % 1008,3 hPa 0,0 l/m 0 min 0 min 0 W/m 16,1 km/h (3 Bft) 100,00 %
15.11.2022 07:00 11,4 C 10,6 C 7,2 C 94 % 1008,3 hPa 0,0 l/m 0 min 0 min 0 W/m 12,9 km/h (3 Bft) 50,00 %
15.11.2022 07:02 11,4 C 10,6 C 7,2 C 94 % 1008,2 hPa 0,0 l/m 0 min 0 min 0 W/m 12,9 km/h (3 Bft) 100,00 %
15.11.2022 07:04 11,4 C 10,6 C 7,2 C 94 % 1008,3 hPa 0,0 l/m 0 min 0 min 0 W/m 12,9 km/h (3 Bft) 95,65 %
15.11.2022 07:06 11,4 C 10,6 C 7,2 C 94 % 1008,2 hPa 0,0 l/m 0 min 0 min 0 W/m 16,1 km/h (3 Bft) 100,00 %
15.11.2022 07:08 11,4 C 10,6 C 7,2 C 94 % 1008,3 hPa 0,0 l/m 0 min 0 min 0 W/m 6,4 km/h (2 Bft) 100,00 %
15.11.2022 07:10 11,4 C 10,6 C 7,2 C 94 % 1008,3 hPa 0,0 l/m 0 min 0 min 0 W/m 3,2 km/h (1 Bft) 95,24 %
15.11.2022 07:12 11,4 C 10,6 C 7,2 C 94 % 1008,3 hPa 0,0 l/m 0 min 0 min 0 W/m 6,4 km/h (2 Bft) 95,74 %
15.11.2022 07:14 11,4 C 10,6 C 7,2 C 94 % 1008,4 hPa 0,0 l/m 0 min 0 min 0 W/m 6,4 km/h (2 Bft) 97,87 %
15.11.2022 07:16 11,4 C 10,6 C 7,2 C 94 % 1008,4 hPa 0,0 l/m 0 min 0 min 0 W/m 12,9 km/h (3 Bft) 100,00 %
15.11.2022 07:18 11,4 C 10,6 C 7,2 C 94 % 1008,4 hPa 0,0 l/m 0 min 0 min 0 W/m 6,4 km/h (2 Bft) 100,00 %
15.11.2022 07:20 11,4 C 10,6 C 7,2 C 94 % 1008,4 hPa 0,0 l/m 0 min 0 min 0 W/m 3,2 km/h (1 Bft) 97,87 %
15.11.2022 07:22 11,3 C 10,6 C 7,2 C 94 % 1008,4 hPa 0,0 l/m 0 min 0 min 0 W/m 3,2 km/h (1 Bft) 97,83 %
15.11.2022 07:24 11,3 C 10,6 C 7,2 C 94 % 1008,4 hPa 0,0 l/m 0 min 0 min 0 W/m 12,9 km/h (3 Bft) 100,00 %
15.11.2022 07:26 11,3 C 10,6 C 7,2 C 94 % 1008,4 hPa 0,0 l/m 0 min 0 min 0 W/m 3,2 km/h (1 Bft) 100,00 %
15.11.2022 07:28 11,3 C 10,6 C 7,2 C 94 % 1008,4 hPa 0,0 l/m 0 min 0 min 0 W/m 6,4 km/h (2 Bft) 97,87 %
15.11.2022 07:30 11,3 C 10,6 C 7,2 C 94 % 1008,4 hPa 0,0 l/m 0 min 0 min 0 W/m 3,2 km/h (1 Bft) 97,87 %
15.11.2022 07:32 11,3 C 10,6 C 7,2 C 94 % 1008,4 hPa 0,0 l/m 0 min 0 min 0 W/m 6,4 km/h (2 Bft) 95,74 %
15.11.2022 07:34 11,3 C 10,6 C 7,2 C 94 % 1008,4 hPa 0,0 l/m 0 min 0 min 0 W/m 6,4 km/h (2 Bft) 93,48 %
15.11.2022 07:36 11,3 C 10,6 C 7,2 C 94 % 1008,5 hPa 0,0 l/m 0 min 0 min 0 W/m 3,2 km/h (1 Bft) 97,87 %
15.11.2022 07:38 11,3 C 10,6 C 7,2 C 95 % 1008,5 hPa 0,0 l/m 0 min 0 min 0 W/m 6,4 km/h (2 Bft) 97,87 %
15.11.2022 07:40 11,3 C 10,6 C 7,2 C 95 % 1008,5 hPa 0,0 l/m 0 min 0 min 0 W/m 6,4 km/h (2 Bft) 100,00 %
15.11.2022 07:42 11,3 C 10,6 C 7,2 C 95 % 1008,5 hPa 0,0 l/m 0 min 0 min 0 W/m 6,4 km/h (2 Bft) 95,74 %
15.11.2022 07:44 11,3 C 10,6 C 7,2 C 95 % 1008,5 hPa 0,0 l/m 0 min 0 min 0 W/m 6,4 km/h (2 Bft) 100,00 %
15.11.2022 07:46 11,3 C 10,6 C 7,2 C 95 % 1008,5 hPa 0,0 l/m 0 min 0 min 0 W/m 6,4 km/h (2 Bft) 97,83 %
15.11.2022 07:48 11,3 C 10,6 C 7,2 C 95 % 1008,5 hPa 0,0 l/m 0 min 0 min 0 W/m 12,9 km/h (3 Bft) 93,62 %
15.11.2022 07:50 11,3 C 10,6 C 7,2 C 95 % 1008,5 hPa 0,0 l/m 0 min 0 min 0 W/m 12,9 km/h (3 Bft) 97,87 %
15.11.2022 07:52 11,3 C 10,6 C 7,2 C 95 % 1008,5 hPa 0,0 l/m 0 min 0 min 0 W/m 6,4 km/h (2 Bft) 95,74 %
15.11.2022 07:54 11,3 C 10,6 C 7,2 C 95 % 1008,5 hPa 0,0 l/m 0 min 0 min 0 W/m 12,9 km/h (3 Bft) 95,74 %
15.11.2022 07:56 11,3 C 10,6 C 7,8 C 95 % 1008,5 hPa 0,0 l/m 0 min 0 min 0 W/m 12,9 km/h (3 Bft) 97,87 %
15.11.2022 07:58 11,3 C 10,6 C 7,8 C 95 % 1008,5 hPa 0,0 l/m 0 min 0 min 0 W/m 16,1 km/h (3 Bft) 93,48 %
15.11.2022 08:00 11,4 C 11,1 C 7,8 C 95 % 1008,6 hPa 0,0 l/m 0 min 0 min 0 W/m 12,9 km/h (3 Bft) 95,74 %
15.11.2022 08:02 11,4 C 11,1 C 7,8 C 94 % 1008,7 hPa 0,0 l/m 0 min 0 min 0 W/m 16,1 km/h (3 Bft) 95,74 %
15.11.2022 08:04 11,4 C 11,1 C 7,8 C 94 % 1008,7 hPa 0,0 l/m 0 min 0 min 4 W/m 19,3 km/h (3 Bft) 97,62 %
15.11.2022 08:06 11,4 C 11,1 C 7,8 C 94 % 1008,8 hPa 0,0 l/m 0 min 0 min 6 W/m 12,9 km/h (3 Bft) 98,28 %
15.11.2022 08:08 11,4 C 11,1 C 7,8 C 94 % 1008,8 hPa 0,0 l/m 0 min 0 min 5 W/m 12,9 km/h (3 Bft) 97,14 %
15.11.2022 08:10 11,5 C 11,1 C 7,8 C 94 % 1008,8 hPa 0,0 l/m 0 min 0 min 5 W/m 41,8 km/h (6 Bft) 97,87 %
15.11.2022 08:12 11,6 C 11,1 C 7,8 C 94 % 1008,9 hPa 0,0 l/m 0 min 0 min 4 W/m 32,2 km/h (5 Bft) 95,74 %
15.11.2022 08:14 11,6 C 11,1 C 7,8 C 94 % 1008,9 hPa 0,0 l/m 0 min 0 min 0 W/m 22,5 km/h (4 Bft) 97,87 %
15.11.2022 08:16 11,7 C 11,1 C 7,8 C 93 % 1008,9 hPa 0,0 l/m 0 min 2 min 0 W/m 29,0 km/h (5 Bft) 93,62 %
15.11.2022 08:18 11,7 C 11,1 C 7,8 C 93 % 1009,0 hPa 0,0 l/m 0 min 0 min 0 W/m 29,0 km/h (5 Bft) 97,83 %
15.11.2022 08:20 11,7 C 11,1 C 7,8 C 93 % 1009,1 hPa 0,2 l/m 0 min 2 min 0 W/m 19,3 km/h (3 Bft) 97,87 %
15.11.2022 08:22 11,7 C 10,6 C 7,2 C 93 % 1009,1 hPa 0,0 l/m 0 min 2 min 0 W/m 41,8 km/h (6 Bft) 93,62 %
15.11.2022 08:24 11,7 C 10,6 C 7,2 C 93 % 1009,1 hPa 0,2 l/m 0 min 2 min 5 W/m 22,5 km/h (4 Bft) 93,62 %
15.11.2022 08:26 11,7 C 10,6 C 7,2 C 93 % 1009,1 hPa 0,0 l/m 0 min 2 min 6 W/m 12,9 km/h (3 Bft) 91,49 %
15.11.2022 08:28 11,6 C 10,0 C 7,2 C 93 % 1009,2 hPa 0,0 l/m 0 min 2 min 7 W/m 35,4 km/h (5 Bft) 93,62 %
15.11.2022 08:30 11,6 C 10,0 C 6,7 C 93 % 1009,3 hPa 0,0 l/m 0 min 0 min 7 W/m 29,0 km/h (5 Bft) 93,48 %
15.11.2022 08:32 11,5 C 10,0 C 6,7 C 93 % 1009,4 hPa 0,0 l/m 0 min 2 min 7 W/m 19,3 km/h (3 Bft) 89,36 %
15.11.2022 08:34 11,4 C 10,0 C 6,7 C 93 % 1009,4 hPa 0,0 l/m 0 min 2 min 8 W/m 19,3 km/h (3 Bft) 91,49 %
15.11.2022 08:36 11,4 C 10,0 C 6,7 C 93 % 1009,4 hPa 0,0 l/m 0 min 2 min 9 W/m 35,4 km/h (5 Bft) 95,74 %
15.11.2022 08:38 11,3 C 10,0 C 6,7 C 93 % 1009,4 hPa 0,0 l/m 0 min 2 min 11 W/m 22,5 km/h (4 Bft) 95,74 %
15.11.2022 08:40 11,3 C 10,0 C 6,7 C 93 % 1009,5 hPa 0,2 l/m 0 min 0 min 12 W/m 22,5 km/h (4 Bft) 97,87 %
15.11.2022 08:42 11,2 C 10,0 C 6,7 C 94 % 1009,5 hPa 0,0 l/m 0 min 0 min 14 W/m 22,5 km/h (4 Bft) 93,48 %
15.11.2022 08:44 11,2 C 10,0 C 6,7 C 94 % 1009,4 hPa 0,0 l/m 0 min 2 min 15 W/m 16,1 km/h (3 Bft) 91,49 %
15.11.2022 08:46 11,2 C 10,0 C 6,7 C 94 % 1009,5 hPa 0,0 l/m 0 min 0 min 18 W/m 16,1 km/h (3 Bft) 95,74 %
15.11.2022 08:48 11,1 C 10,0 C 6,7 C 94 % 1009,4 hPa 0,0 l/m 0 min 0 min 19 W/m 22,5 km/h (4 Bft) 95,74 %
15.11.2022 08:50 11,1 C 10,0 C 6,7 C 94 % 1009,4 hPa 0,0 l/m 0 min 0 min 19 W/m 9,7 km/h (2 Bft) 95,74 %
15.11.2022 08:52 11,1 C 10,0 C 6,7 C 94 % 1009,4 hPa 0,0 l/m 0 min 0 min 21 W/m 16,1 km/h (3 Bft) 95,74 %
15.11.2022 08:54 11,1 C 10,0 C 6,7 C 94 % 1009,4 hPa 0,0 l/m 0 min 0 min 22 W/m 19,3 km/h (3 Bft) 95,65 %
15.11.2022 08:56 11,0 C 10,0 C 6,7 C 94 % 1009,4 hPa 0,0 l/m 0 min 0 min 21 W/m 12,9 km/h (3 Bft) 97,87 %
15.11.2022 08:58 11,0 C 10,0 C 6,7 C 95 % 1009,4 hPa 0,0 l/m 0 min 0 min 23 W/m 9,7 km/h (2 Bft) 97,87 %
15.11.2022 09:00 10,9 C 10,0 C 6,7 C 95 % 1009,4 hPa 0,0 l/m 0 min 0 min 24 W/m 12,9 km/h (3 Bft) 97,87 %
15.11.2022 09:02 10,9 C 10,0 C 6,7 C 95 % 1009,5 hPa 0,0 l/m 0 min 0 min 27 W/m 9,7 km/h (2 Bft) 97,87 %
15.11.2022 09:04 10,9 C 10,0 C 6,7 C 95 % 1009,4 hPa 0,0 l/m 0 min 0 min 30 W/m 9,7 km/h (2 Bft) 95,83 %
15.11.2022 09:06 10,9 C 10,0 C 6,7 C 95 % 1009,5 hPa 0,0 l/m 0 min 0 min 31 W/m 3,2 km/h (1 Bft) 96,55 %
15.11.2022 09:08 10,9 C 10,0 C 6,7 C 95 % 1009,4 hPa 0,0 l/m 0 min 0 min 33 W/m 6,4 km/h (2 Bft) 97,87 %
15.11.2022 09:10 10,9 C 10,0 C 6,7 C 95 % 1009,3 hPa 0,0 l/m 0 min 0 min 39 W/m 6,4 km/h (2 Bft) 97,87 %
15.11.2022 09:12 10,9 C 10,0 C 6,7 C 95 % 1009,4 hPa 0,0 l/m 0 min 0 min 40 W/m 3,2 km/h (1 Bft) 97,87 %
15.11.2022 09:14 10,9 C 10,0 C 6,7 C 95 % 1009,4 hPa 0,0 l/m 0 min 0 min 42 W/m 0,0 km/h (0 Bft) 95,65 %
15.11.2022 09:16 10,9 C 10,0 C 6,7 C 95 % 1009,4 hPa 0,0 l/m 0 min 0 min 47 W/m 3,2 km/h (1 Bft) 97,87 %
15.11.2022 09:18 10,9 C 10,0 C 6,7 C 95 % 1009,4 hPa 0,0 l/m 0 min 0 min 53 W/m 6,4 km/h (2 Bft) 97,87 %
15.11.2022 09:20 10,9 C 10,0 C 6,7 C 95 % 1009,4 hPa 0,0 l/m 0 min 0 min 64 W/m 3,2 km/h (1 Bft) 100,00 %
15.11.2022 09:22 10,9 C 10,6 C 6,7 C 95 % 1009,4 hPa 0,0 l/m 0 min 0 min 74 W/m 3,2 km/h (1 Bft) 100,00 %
15.11.2022 09:24 10,9 C 10,6 C 6,7 C 95 % 1009,4 hPa 0,0 l/m 0 min 0 min 83 W/m 0,0 km/h (0 Bft) 100,00 %
15.11.2022 09:26 10,9 C 10,6 C 7,2 C 96 % 1009,3 hPa 0,0 l/m 0 min 2 min 80 W/m 6,4 km/h (2 Bft) 97,83 %
15.11.2022 09:28 10,9 C 10,6 C 6,7 C 96 % 1009,3 hPa 0,0 l/m 0 min 2 min 68 W/m 6,4 km/h (2 Bft) 91,49 %
15.11.2022 09:30 11,0 C 10,6 C 6,7 C 96 % 1009,3 hPa 0,0 l/m 0 min 0 min 62 W/m 3,2 km/h (1 Bft) 100,00 %
15.11.2022 09:32 10,9 C 10,6 C 6,7 C 96 % 1009,3 hPa 0,0 l/m 0 min 0 min 60 W/m 6,4 km/h (2 Bft) 100,00 %
15.11.2022 09:34 10,9 C 10,6 C 6,7 C 96 % 1009,2 hPa 0,0 l/m 0 min 0 min 58 W/m 3,2 km/h (1 Bft) 100,00 %
15.11.2022 09:36 10,9 C 10,6 C 6,7 C 96 % 1009,2 hPa 0,0 l/m 0 min 0 min 56 W/m 3,2 km/h (1 Bft) 97,87 %
15.11.2022 09:38 10,9 C 10,6 C 6,7 C 96 % 1009,2 hPa 0,0 l/m 0 min 0 min 54 W/m 0,0 km/h (0 Bft) 100,00 %
15.11.2022 09:40 10,9 C 10,6 C 6,7 C 96 % 1009,2 hPa 0,0 l/m 0 min 0 min 50 W/m 3,2 km/h (1 Bft) 100,00 %
15.11.2022 09:42 10,9 C 10,0 C 6,7 C 96 % 1009,2 hPa 0,0 l/m 0 min 0 min 47 W/m 3,2 km/h (1 Bft) 100,00 %
15.11.2022 09:44 10,9 C 10,0 C 6,7 C 96 % 1009,1 hPa 0,0 l/m 0 min 0 min 49 W/m 6,4 km/h (2 Bft) 100,00 %
15.11.2022 09:46 10,9 C 10,0 C 6,7 C 96 % 1009,1 hPa 0,0 l/m 0 min 0 min 49 W/m 3,2 km/h (1 Bft) 97,87 %
15.11.2022 09:48 10,9 C 10,0 C 6,7 C 96 % 1009,1 hPa 0,0 l/m 0 min 0 min 47 W/m 3,2 km/h (1 Bft) 100,00 %
15.11.2022 09:50 10,8 C 10,0 C 6,7 C 96 % 1009,1 hPa 0,0 l/m 0 min 0 min 47 W/m 0,0 km/h (0 Bft) 100,00 %
15.11.2022 09:52 10,8 C 10,0 C 6,7 C 96 % 1009,0 hPa 0,0 l/m 0 min 0 min 46 W/m 3,2 km/h (1 Bft) 97,87 %
15.11.2022 09:54 10,8 C 10,0 C 6,7 C 96 % 1009,0 hPa 0,0 l/m 0 min 0 min 50 W/m 9,7 km/h (2 Bft) 100,00 %
15.11.2022 09:56 10,8 C 10,0 C 6,7 C 96 % 1009,0 hPa 0,0 l/m 0 min 0 min 55 W/m 3,2 km/h (1 Bft) 95,74 %
15.11.2022 09:58 10,8 C 10,0 C 6,7 C 96 % 1009,0 hPa 0,0 l/m 0 min 0 min 62 W/m 6,4 km/h (2 Bft) 100,00 %
15.11.2022 10:00 10,8 C 10,0 C 6,7 C 96 % 1009,0 hPa 0,0 l/m 0 min 0 min 67 W/m 3,2 km/h (1 Bft) 100,00 %
15.11.2022 10:02 10,7 C 10,0 C 6,7 C 96 % 1009,0 hPa 0,0 l/m 0 min 0 min 66 W/m 3,2 km/h (1 Bft) 100,00 %
15.11.2022 10:04 10,7 C 10,6 C 6,7 C 96 % 1009,0 hPa 0,0 l/m 0 min 0 min 70 W/m 3,2 km/h (1 Bft) 100,00 %
15.11.2022 10:06 10,7 C 10,6 C 6,7 C 96 % 1009,0 hPa 0,0 l/m 2 min 0 min 128 W/m 6,4 km/h (2 Bft) 100,00 %
15.11.2022 10:08 10,7 C 10,6 C 6,7 C 96 % 1009,0 hPa 0,0 l/m 2 min 0 min 161 W/m 3,2 km/h (1 Bft) 100,00 %
15.11.2022 10:10 10,8 C 10,6 C 6,7 C 96 % 1009,0 hPa 0,0 l/m 0 min 0 min 109 W/m 0,0 km/h (0 Bft) 95,74 %
15.11.2022 10:12 10,8 C 10,6 C 6,7 C 96 % 1009,0 hPa 0,0 l/m 0 min 0 min 86 W/m 3,2 km/h (1 Bft) 100,00 %
15.11.2022 10:14 10,8 C 10,6 C 6,7 C 96 % 1009,0 hPa 0,0 l/m 0 min 0 min 65 W/m 6,4 km/h (2 Bft) 100,00 %
15.11.2022 10:16 10,8 C 10,6 C 6,7 C 96 % 1009,1 hPa 0,0 l/m 0 min 0 min 60 W/m 6,4 km/h (2 Bft) 100,00 %
15.11.2022 10:18 10,8 C 11,1 C 6,7 C 96 % 1009,0 hPa 0,0 l/m 0 min 0 min 79 W/m 6,4 km/h (2 Bft) 95,74 %
15.11.2022 10:20 10,9 C 11,7 C 7,2 C 96 % 1009,0 hPa 0,0 l/m 2 min 0 min 146 W/m 6,4 km/h (2 Bft) 95,74 %
15.11.2022 10:22 10,9 C 12,8 C 7,2 C 96 % 1009,0 hPa 0,0 l/m 2 min 0 min 189 W/m 3,2 km/h (1 Bft) 97,87 %
15.11.2022 10:24 11,0 C 13,9 C 7,2 C 96 % 1009,0 hPa 0,0 l/m 2 min 0 min 209 W/m 6,4 km/h (2 Bft) 95,74 %
15.11.2022 10:26 11,1 C 14,4 C 7,2 C 96 % 1009,0 hPa 0,0 l/m 2 min 0 min 200 W/m 6,4 km/h (2 Bft) 97,83 %
15.11.2022 10:28 11,2 C 15,0 C 7,2 C 96 % 1009,0 hPa 0,0 l/m 2 min 0 min 230 W/m 3,2 km/h (1 Bft) 95,74 %
15.11.2022 10:30 11,3 C 15,6 C 7,2 C 96 % 1009,0 hPa 0,0 l/m 2 min 0 min 214 W/m 3,2 km/h (1 Bft) 95,74 %
15.11.2022 10:32 11,3 C 15,6 C 7,2 C 96 % 1008,9 hPa 0,0 l/m 2 min 0 min 191 W/m 3,2 km/h (1 Bft) 97,87 %
15.11.2022 10:34 11,4 C 15,0 C 7,2 C 96 % 1008,9 hPa 0,0 l/m 2 min 0 min 160 W/m 3,2 km/h (1 Bft) 91,49 %
15.11.2022 10:36 11,5 C 14,4 C 7,2 C 96 % 1008,8 hPa 0,0 l/m 2 min 0 min 147 W/m 12,9 km/h (3 Bft) 95,74 %
15.11.2022 10:38 11,5 C 13,9 C 7,2 C 96 % 1008,7 hPa 0,0 l/m 0 min 0 min 143 W/m 16,1 km/h (3 Bft) 93,48 %
15.11.2022 10:40 11,5 C 13,9 C 7,2 C 96 % 1008,7 hPa 0,0 l/m 0 min 0 min 142 W/m 12,9 km/h (3 Bft) 95,74 %
15.11.2022 10:42 11,5 C 13,3 C 7,2 C 96 % 1008,6 hPa 0,0 l/m 0 min 0 min 130 W/m 6,4 km/h (2 Bft) 95,74 %
15.11.2022 10:44 11,5 C 13,3 C 7,2 C 96 % 1008,6 hPa 0,0 l/m 0 min 0 min 145 W/m 9,7 km/h (2 Bft) 95,74 %
15.11.2022 10:46 11,6 C 13,3 C 7,2 C 95 % 1008,6 hPa 0,0 l/m 0 min 0 min 134 W/m 6,4 km/h (2 Bft) 95,74 %
15.11.2022 10:48 11,6 C 12,8 C 7,2 C 95 % 1008,6 hPa 0,0 l/m 0 min 0 min 126 W/m 9,7 km/h (2 Bft) 95,74 %
15.11.2022 10:50 11,6 C 12,8 C 7,2 C 95 % 1008,6 hPa 0,0 l/m 0 min 0 min 110 W/m 6,4 km/h (2 Bft) 95,65 %
15.11.2022 10:52 11,6 C 12,8 C 7,2 C 94 % 1008,6 hPa 0,0 l/m 0 min 0 min 106 W/m 0,0 km/h (0 Bft) 91,49 %
15.11.2022 10:54 11,7 C 13,3 C 7,2 C 94 % 1008,6 hPa 0,0 l/m 0 min 0 min 104 W/m 0,0 km/h (0 Bft) 93,62 %
15.11.2022 10:56 11,7 C 12,8 C 7,2 C 93 % 1008,5 hPa 0,0 l/m 0 min 0 min 98 W/m 12,9 km/h (3 Bft) 93,62 %
15.11.2022 10:58 11,7 C 12,8 C 7,2 C 93 % 1008,5 hPa 0,0 l/m 0 min 0 min 97 W/m 12,9 km/h (3 Bft) 97,87 %
15.11.2022 11:00 11,8 C 12,8 C 7,2 C 92 % 1008,5 hPa 0,0 l/m 0 min 0 min 91 W/m 12,9 km/h (3 Bft) 97,87 %
15.11.2022 11:02 11,8 C 12,2 C 7,2 C 91 % 1008,4 hPa 0,0 l/m 0 min 0 min 85 W/m 16,1 km/h (3 Bft) 95,65 %
15.11.2022 11:04 11,9 C 12,2 C 7,2 C 90 % 1008,4 hPa 0,0 l/m 0 min 0 min 83 W/m 12,9 km/h (3 Bft) 97,87 %
15.11.2022 11:06 11,9 C 12,2 C 7,2 C 90 % 1008,4 hPa 0,0 l/m 0 min 0 min 82 W/m 9,7 km/h (2 Bft) 95,74 %
15.11.2022 11:08 11,9 C 12,2 C 7,2 C 89 % 1008,3 hPa 0,0 l/m 0 min 0 min 81 W/m 6,4 km/h (2 Bft) 97,87 %
15.11.2022 11:10 12,0 C 12,2 C 7,2 C 88 % 1008,3 hPa 0,0 l/m 0 min 0 min 78 W/m 6,4 km/h (2 Bft) 97,87 %
15.11.2022 11:12 12,1 C 12,2 C 7,2 C 88 % 1008,2 hPa 0,0 l/m 0 min 0 min 76 W/m 16,1 km/h (3 Bft) 97,87 %
15.11.2022 11:14 12,1 C 12,2 C 7,2 C 88 % 1008,2 hPa 0,0 l/m 0 min 0 min 75 W/m 12,9 km/h (3 Bft) 93,48 %
15.11.2022 11:16 12,1 C 12,2 C 7,2 C 87 % 1008,1 hPa 0,0 l/m 0 min 0 min 72 W/m 12,9 km/h (3 Bft) 93,62 %
15.11.2022 11:18 12,2 C 12,2 C 7,2 C 87 % 1008,2 hPa 0,0 l/m 0 min 0 min 70 W/m 9,7 km/h (2 Bft) 93,62 %
15.11.2022 11:20 12,2 C 12,2 C 7,2 C 87 % 1008,1 hPa 0,0 l/m 0 min 0 min 69 W/m 16,1 km/h (3 Bft) 95,74 %
15.11.2022 11:22 12,2 C 12,2 C 7,2 C 87 % 1008,0 hPa 0,0 l/m 0 min 0 min 67 W/m 9,7 km/h (2 Bft) 95,74 %
15.11.2022 11:24 12,3 C 12,2 C 7,2 C 87 % 1008,1 hPa 0,0 l/m 0 min 0 min 65 W/m 12,9 km/h (3 Bft) 53,33 %
15.11.2022 11:26 12,3 C 12,2 C 7,2 C 86 % 1008,1 hPa 0,0 l/m 0 min 0 min 63 W/m 16,1 km/h (3 Bft) 93,62 %
15.11.2022 11:28 12,3 C 12,2 C 7,2 C 86 % 1008,1 hPa 0,0 l/m 0 min 0 min 62 W/m 19,3 km/h (3 Bft) 97,87 %
15.11.2022 11:30 12,3 C 12,2 C 7,2 C 85 % 1008,0 hPa 0,0 l/m 0 min 0 min 66 W/m 12,9 km/h (3 Bft) 97,87 %
15.11.2022 11:32 12,3 C 12,2 C 7,8 C 85 % 1008,0 hPa 0,0 l/m 0 min 0 min 62 W/m 6,4 km/h (2 Bft) 95,74 %
15.11.2022 11:34 12,4 C 12,2 C 7,8 C 85 % 1008,1 hPa 0,0 l/m 0 min 0 min 59 W/m 16,1 km/h (3 Bft) 97,87 %
15.11.2022 11:36 12,4 C 12,2 C 7,8 C 84 % 1008,1 hPa 0,0 l/m 0 min 0 min 58 W/m 16,1 km/h (3 Bft) 97,83 %
15.11.2022 11:38 12,4 C 12,2 C 7,8 C 84 % 1008,0 hPa 0,0 l/m 0 min 0 min 59 W/m 16,1 km/h (3 Bft) 97,87 %
15.11.2022 11:40 12,4 C 12,2 C 7,8 C 84 % 1007,9 hPa 0,0 l/m 0 min 0 min 60 W/m 16,1 km/h (3 Bft) 97,87 %
15.11.2022 11:42 12,4 C 12,2 C 7,8 C 84 % 1007,9 hPa 0,0 l/m 0 min 0 min 62 W/m 16,1 km/h (3 Bft) 100,00 %
15.11.2022 11:44 12,4 C 12,2 C 7,8 C 83 % 1007,9 hPa 0,0 l/m 0 min 0 min 62 W/m 19,3 km/h (3 Bft) 97,87 %
15.11.2022 11:46 12,4 C 12,2 C 8,3 C 83 % 1007,9 hPa 0,0 l/m 0 min 0 min 63 W/m 19,3 km/h (3 Bft) 97,87 %
15.11.2022 11:48 12,4 C 12,2 C 8,3 C 82 % 1007,8 hPa 0,0 l/m 0 min 0 min 63 W/m 19,3 km/h (3 Bft) 97,83 %
15.11.2022 11:50 12,4 C 12,2 C 8,3 C 81 % 1007,8 hPa 0,0 l/m 0 min 0 min 66 W/m 25,7 km/h (4 Bft) 95,74 %
15.11.2022 11:52 12,5 C 12,2 C 8,3 C 81 % 1007,7 hPa 0,0 l/m 0 min 0 min 67 W/m 16,1 km/h (3 Bft) 97,87 %
15.11.2022 11:54 12,5 C 12,2 C 8,3 C 81 % 1007,7 hPa 0,0 l/m 0 min 0 min 68 W/m 12,9 km/h (3 Bft) 97,87 %
15.11.2022 11:56 12,6 C 12,2 C 8,3 C 81 % 1007,7 hPa 0,0 l/m 0 min 0 min 68 W/m 12,9 km/h (3 Bft) 97,87 %
15.11.2022 11:58 12,6 C 12,2 C 8,3 C 81 % 1007,7 hPa 0,0 l/m 0 min 0 min 69 W/m 19,3 km/h (3 Bft) 97,87 %
15.11.2022 12:00 12,6 C 12,2 C 8,3 C 81 % 1007,6 hPa 0,0 l/m 0 min 0 min 69 W/m 19,3 km/h (3 Bft) 95,65 %
15.11.2022 12:02 12,6 C 12,2 C 8,3 C 81 % 1007,7 hPa 0,0 l/m 0 min 0 min 70 W/m 9,7 km/h (2 Bft) 97,87 %
15.11.2022 12:04 12,7 C 12,8 C 8,3 C 81 % 1007,7 hPa 0,0 l/m 0 min 0 min 73 W/m 12,9 km/h (3 Bft) 97,92 %
15.11.2022 12:07 12,7 C 12,8 C 8,3 C 80 % 1007,6 hPa 0,0 l/m 0 min 0 min 69 W/m 22,5 km/h (4 Bft) 97,92 %
15.11.2022 12:08 12,7 C 12,8 C 8,3 C 80 % 1007,6 hPa 0,0 l/m 0 min 0 min 69 W/m 22,5 km/h (4 Bft) 98,92 %
15.11.2022 12:10 12,8 C 12,8 C 8,9 C 80 % 1007,5 hPa 0,0 l/m 0 min 0 min 71 W/m 19,3 km/h (3 Bft) 100,00 %
15.11.2022 12:12 12,8 C 12,8 C 8,9 C 80 % 1007,5 hPa 0,0 l/m 0 min 0 min 77 W/m 22,5 km/h (4 Bft) 95,74 %
15.11.2022 12:14 12,8 C 12,8 C 8,9 C 79 % 1007,5 hPa 0,0 l/m 0 min 0 min 78 W/m 9,7 km/h (2 Bft) 100,00 %
15.11.2022 12:16 12,9 C 12,8 C 8,9 C 79 % 1007,6 hPa 0,0 l/m 0 min 0 min 80 W/m 12,9 km/h (3 Bft) 97,87 %
15.11.2022 12:18 12,9 C 12,8 C 8,9 C 79 % 1007,6 hPa 0,0 l/m 0 min 0 min 83 W/m 16,1 km/h (3 Bft) 97,83 %
15.11.2022 12:20 12,9 C 12,8 C 8,9 C 79 % 1007,5 hPa 0,0 l/m 0 min 0 min 82 W/m 19,3 km/h (3 Bft) 97,87 %
15.11.2022 12:22 12,9 C 12,8 C 8,9 C 78 % 1007,5 hPa 0,0 l/m 0 min 0 min 87 W/m 19,3 km/h (3 Bft) 97,87 %
15.11.2022 12:24 13,0 C 12,8 C 8,9 C 77 % 1007,5 hPa 0,0 l/m 0 min 0 min 92 W/m 12,9 km/h (3 Bft) 97,87 %
15.11.2022 12:26 13,0 C 12,8 C 8,9 C 76 % 1007,5 hPa 0,0 l/m 0 min 0 min 94 W/m 19,3 km/h (3 Bft) 97,87 %
15.11.2022 12:28 13,0 C 12,8 C 8,9 C 76 % 1007,5 hPa 0,0 l/m 0 min 0 min 97 W/m 19,3 km/h (3 Bft) 95,74 %
15.11.2022 12:30 13,0 C 12,8 C 8,9 C 76 % 1007,5 hPa 0,0 l/m 0 min 0 min 102 W/m 12,9 km/h (3 Bft) 97,83 %
15.11.2022 12:32 13,0 C 12,8 C 8,9 C 75 % 1007,5 hPa 0,0 l/m 0 min 0 min 104 W/m 12,9 km/h (3 Bft) 94,59 %
15.11.2022 12:34 13,1 C 12,8 C 8,9 C 75 % 1007,5 hPa 0,0 l/m 0 min 0 min 107 W/m 16,1 km/h (3 Bft) 97,87 %
15.11.2022 12:36 13,1 C 12,8 C 8,9 C 75 % 1007,4 hPa 0,0 l/m 0 min 0 min 111 W/m 9,7 km/h (2 Bft) 97,87 %
15.11.2022 12:38 13,1 C 12,8 C 8,9 C 75 % 1007,5 hPa 0,0 l/m 0 min 0 min 115 W/m 16,1 km/h (3 Bft) 97,87 %
15.11.2022 12:40 13,1 C 12,8 C 8,9 C 75 % 1007,5 hPa 0,0 l/m 0 min 0 min 120 W/m 19,3 km/h (3 Bft) 95,65 %
15.11.2022 12:42 13,1 C 12,8 C 8,9 C 75 % 1007,4 hPa 0,0 l/m 0 min 0 min 120 W/m 16,1 km/h (3 Bft) 95,74 %
15.11.2022 12:44 13,1 C 13,3 C 8,9 C 74 % 1007,4 hPa 0,0 l/m 0 min 0 min 121 W/m 16,1 km/h (3 Bft) 97,87 %
15.11.2022 12:46 13,1 C 13,3 C 8,9 C 74 % 1007,3 hPa 0,0 l/m 0 min 0 min 124 W/m 16,1 km/h (3 Bft) 95,74 %
15.11.2022 12:48 13,1 C 13,3 C 8,9 C 75 % 1007,3 hPa 0,0 l/m 0 min 0 min 120 W/m 12,9 km/h (3 Bft) 97,87 %
15.11.2022 12:50 13,1 C 13,3 C 8,9 C 73 % 1007,3 hPa 0,0 l/m 0 min 0 min 115 W/m 16,1 km/h (3 Bft) 97,87 %
15.11.2022 12:52 13,2 C 13,3 C 8,9 C 73 % 1007,3 hPa 0,0 l/m 0 min 0 min 132 W/m 12,9 km/h (3 Bft) 97,83 %
15.11.2022 12:54 13,2 C 13,3 C 8,9 C 73 % 1007,3 hPa 0,0 l/m 0 min 0 min 121 W/m 6,4 km/h (2 Bft) 97,87 %
15.11.2022 12:56 13,2 C 13,3 C 8,9 C 73 % 1007,2 hPa 0,0 l/m 0 min 0 min 125 W/m 16,1 km/h (3 Bft) 95,74 %
15.11.2022 12:58 13,2 C 13,9 C 8,9 C 73 % 1007,1 hPa 0,0 l/m 0 min 0 min 138 W/m 12,9 km/h (3 Bft) 100,00 %
15.11.2022 13:00 13,2 C 13,9 C 8,9 C 72 % 1007,1 hPa 0,0 l/m 0 min 0 min 162 W/m 12,9 km/h (3 Bft) 100,00 %
15.11.2022 13:02 13,2 C 14,4 C 8,9 C 72 % 1007,0 hPa 0,0 l/m 2 min 0 min 172 W/m 9,7 km/h (2 Bft) 95,74 %
15.11.2022 13:04 13,3 C 15,0 C 8,9 C 72 % 1007,0 hPa 0,0 l/m 2 min 0 min 195 W/m 6,4 km/h (2 Bft) 100,00 %
15.11.2022 13:06 13,3 C 15,6 C 8,9 C 72 % 1006,9 hPa 0,0 l/m 2 min 0 min 287 W/m 12,9 km/h (3 Bft) 96,61 %
15.11.2022 13:08 13,4 C 15,6 C 8,9 C 72 % 1006,9 hPa 0,0 l/m 2 min 0 min 345 W/m 16,1 km/h (3 Bft) 97,14 %
15.11.2022 13:10 13,4 C 15,0 C 8,9 C 72 % 1006,9 hPa 0,0 l/m 2 min 0 min 285 W/m 12,9 km/h (3 Bft) 97,87 %
15.11.2022 13:12 13,4 C 15,0 C 8,9 C 72 % 1006,8 hPa 0,0 l/m 2 min 0 min 265 W/m 6,4 km/h (2 Bft) 95,74 %
15.11.2022 13:14 13,5 C 15,0 C 8,9 C 72 % 1006,7 hPa 0,0 l/m 2 min 0 min 281 W/m 16,1 km/h (3 Bft) 91,49 %
15.11.2022 13:16 13,6 C 14,4 C 8,9 C 72 % 1006,7 hPa 0,0 l/m 2 min 0 min 262 W/m 12,9 km/h (3 Bft) 93,48 %
15.11.2022 13:18 13,6 C 14,4 C 8,9 C 71 % 1006,6 hPa 0,0 l/m 2 min 0 min 259 W/m 19,3 km/h (3 Bft) 97,87 %
15.11.2022 13:20 13,6 C 14,4 C 8,9 C 71 % 1006,6 hPa 0,0 l/m 2 min 0 min 259 W/m 9,7 km/h (2 Bft) 95,74 %
15.11.2022 13:22 13,7 C 14,4 C 8,9 C 71 % 1006,6 hPa 0,0 l/m 2 min 0 min 269 W/m 16,1 km/h (3 Bft) 97,87 %
15.11.2022 13:24 13,7 C 13,9 C 8,9 C 70 % 1006,6 hPa 0,0 l/m 2 min 0 min 234 W/m 9,7 km/h (2 Bft) 95,74 %
15.11.2022 13:26 13,7 C 13,9 C 8,9 C 70 % 1006,5 hPa 0,0 l/m 2 min 0 min 239 W/m 16,1 km/h (3 Bft) 95,65 %
15.11.2022 13:28 13,7 C 13,9 C 8,9 C 70 % 1006,5 hPa 0,0 l/m 2 min 0 min 251 W/m 16,1 km/h (3 Bft) 97,87 %
15.11.2022 13:30 13,8 C 13,9 C 8,9 C 70 % 1006,4 hPa 0,0 l/m 2 min 0 min 264 W/m 16,1 km/h (3 Bft) 97,87 %
15.11.2022 13:32 13,8 C 14,4 C 8,9 C 70 % 1006,4 hPa 0,0 l/m 2 min 0 min 280 W/m 16,1 km/h (3 Bft) 95,74 %
15.11.2022 13:34 13,8 C 14,4 C 8,9 C 71 % 1006,4 hPa 0,0 l/m 2 min 0 min 249 W/m 12,9 km/h (3 Bft) 95,74 %
15.11.2022 13:36 13,8 C 14,4 C 8,9 C 71 % 1006,4 hPa 0,0 l/m 2 min 0 min 261 W/m 12,9 km/h (3 Bft) 97,87 %
15.11.2022 13:38 13,8 C 14,4 C 8,9 C 71 % 1006,4 hPa 0,0 l/m 2 min 0 min 301 W/m 12,9 km/h (3 Bft) 93,48 %
15.11.2022 13:40 13,9 C 14,4 C 8,9 C 71 % 1006,3 hPa 0,0 l/m 2 min 0 min 304 W/m 19,3 km/h (3 Bft) 93,62 %
15.11.2022 13:42 13,9 C 14,4 C 8,9 C 70 % 1006,3 hPa 0,0 l/m 2 min 0 min 286 W/m 16,1 km/h (3 Bft) 97,87 %
15.11.2022 13:44 13,9 C 14,4 C 9,4 C 70 % 1006,3 hPa 0,0 l/m 2 min 0 min 303 W/m 19,3 km/h (3 Bft) 91,49 %
15.11.2022 13:46 13,9 C 13,9 C 9,4 C 69 % 1006,2 hPa 0,0 l/m 2 min 0 min 275 W/m 16,1 km/h (3 Bft) 89,36 %
15.11.2022 13:48 13,9 C 13,9 C 8,9 C 69 % 1006,3 hPa 0,0 l/m 2 min 0 min 292 W/m 12,9 km/h (3 Bft) 95,74 %
15.11.2022 13:50 13,9 C 13,9 C 8,9 C 69 % 1006,1 hPa 0,0 l/m 2 min 0 min 273 W/m 16,1 km/h (3 Bft) 95,65 %
15.11.2022 13:52 13,9 C 13,9 C 8,9 C 69 % 1006,0 hPa 0,0 l/m 2 min 0 min 203 W/m 16,1 km/h (3 Bft) 97,87 %
15.11.2022 13:54 13,9 C 13,9 C 8,9 C 69 % 1006,0 hPa 0,0 l/m 2 min 0 min 223 W/m 29,0 km/h (5 Bft) 87,23 %
15.11.2022 13:56 13,9 C 13,3 C 8,9 C 69 % 1006,0 hPa 0,0 l/m 2 min 0 min 178 W/m 16,1 km/h (3 Bft) 89,36 %
15.11.2022 13:58 13,9 C 13,3 C 8,9 C 70 % 1006,0 hPa 0,0 l/m 2 min 0 min 153 W/m 6,4 km/h (2 Bft) 91,49 %
15.11.2022 14:00 13,9 C 13,3 C 8,9 C 71 % 1006,0 hPa 0,0 l/m 2 min 0 min 171 W/m 16,1 km/h (3 Bft) 95,74 %
15.11.2022 14:02 13,8 C 13,9 C 8,9 C 71 % 1005,9 hPa 0,0 l/m 2 min 0 min 179 W/m 16,1 km/h (3 Bft) 91,30 %
15.11.2022 14:04 13,8 C 13,9 C 8,9 C 71 % 1005,9 hPa 0,0 l/m 2 min 0 min 214 W/m 12,9 km/h (3 Bft) 93,75 %
15.11.2022 14:06 13,8 C 13,9 C 8,9 C 71 % 1005,9 hPa 0,0 l/m 2 min 0 min 235 W/m 12,9 km/h (3 Bft) 97,87 %
15.11.2022 14:08 13,8 C 13,9 C 8,9 C 72 % 1005,9 hPa 0,0 l/m 0 min 0 min 128 W/m 12,9 km/h (3 Bft) 91,49 %
15.11.2022 14:10 13,8 C 13,3 C 8,9 C 72 % 1005,8 hPa 0,0 l/m 0 min 0 min 100 W/m 6,4 km/h (2 Bft) 97,87 %
15.11.2022 14:12 13,8 C 13,3 C 8,9 C 72 % 1005,8 hPa 0,0 l/m 0 min 0 min 91 W/m 19,3 km/h (3 Bft) 93,62 %
15.11.2022 14:14 13,7 C 13,3 C 8,9 C 72 % 1005,7 hPa 0,0 l/m 0 min 0 min 98 W/m 12,9 km/h (3 Bft) 93,48 %
15.11.2022 14:16 13,7 C 13,3 C 8,9 C 72 % 1005,7 hPa 0,0 l/m 2 min 0 min 151 W/m 12,9 km/h (3 Bft) 95,74 %
15.11.2022 14:18 13,7 C 13,3 C 8,9 C 73 % 1005,7 hPa 0,0 l/m 2 min 0 min 154 W/m 9,7 km/h (2 Bft) 97,87 %
15.11.2022 14:20 13,6 C 13,3 C 8,9 C 73 % 1005,7 hPa 0,0 l/m 0 min 0 min 125 W/m 12,9 km/h (3 Bft) 95,74 %
15.11.2022 14:22 13,6 C 13,3 C 8,9 C 73 % 1005,7 hPa 0,0 l/m 0 min 0 min 128 W/m 12,9 km/h (3 Bft) 95,74 %
15.11.2022 14:24 13,6 C 13,9 C 8,9 C 73 % 1005,7 hPa 0,0 l/m 2 min 0 min 146 W/m 6,4 km/h (2 Bft) 93,62 %
15.11.2022 14:26 13,6 C 13,3 C 8,9 C 74 % 1005,6 hPa 0,0 l/m 0 min 0 min 128 W/m 16,1 km/h (3 Bft) 97,83 %
15.11.2022 14:28 13,6 C 13,3 C 8,9 C 74 % 1005,6 hPa 0,0 l/m 0 min 0 min 113 W/m 19,3 km/h (3 Bft) 95,74 %
15.11.2022 14:30 13,6 C 13,3 C 8,9 C 74 % 1005,6 hPa 0,0 l/m 0 min 0 min 115 W/m 12,9 km/h (3 Bft) 97,87 %
15.11.2022 14:32 13,6 C 13,3 C 8,9 C 74 % 1005,5 hPa 0,0 l/m 0 min 0 min 119 W/m 16,1 km/h (3 Bft) 97,87 %
15.11.2022 14:34 13,6 C 13,3 C 8,9 C 74 % 1005,4 hPa 0,0 l/m 0 min 0 min 114 W/m 19,3 km/h (3 Bft) 95,74 %
15.11.2022 14:36 13,6 C 13,3 C 8,9 C 74 % 1005,4 hPa 0,0 l/m 0 min 0 min 114 W/m 12,9 km/h (3 Bft) 97,87 %
15.11.2022 14:38 13,6 C 13,3 C 8,9 C 74 % 1005,3 hPa 0,0 l/m 0 min 0 min 112 W/m 16,1 km/h (3 Bft) 95,65 %
15.11.2022 14:40 13,6 C 13,3 C 8,9 C 75 % 1005,2 hPa 0,0 l/m 0 min 0 min 102 W/m 16,1 km/h (3 Bft) 100,00 %
15.11.2022 14:42 13,6 C 13,3 C 8,9 C 75 % 1005,2 hPa 0,0 l/m 0 min 0 min 96 W/m 12,9 km/h (3 Bft) 95,74 %
15.11.2022 14:44 13,6 C 13,3 C 8,9 C 75 % 1005,2 hPa 0,0 l/m 0 min 0 min 100 W/m 16,1 km/h (3 Bft) 93,62 %
15.11.2022 14:46 13,6 C 13,3 C 8,9 C 75 % 1005,2 hPa 0,0 l/m 2 min 0 min 123 W/m 22,5 km/h (4 Bft) 95,74 %
15.11.2022 14:48 13,6 C 13,3 C 8,9 C 75 % 1005,1 hPa 0,0 l/m 2 min 0 min 122 W/m 19,3 km/h (3 Bft) 93,62 %
15.11.2022 14:50 13,6 C 13,3 C 8,9 C 75 % 1005,1 hPa 0,0 l/m 0 min 0 min 110 W/m 9,7 km/h (2 Bft) 97,83 %
15.11.2022 14:52 13,6 C 13,3 C 8,9 C 75 % 1005,1 hPa 0,0 l/m 0 min 0 min 103 W/m 12,9 km/h (3 Bft) 93,62 %
15.11.2022 14:54 13,6 C 13,3 C 8,9 C 76 % 1004,9 hPa 0,0 l/m 0 min 0 min 105 W/m 12,9 km/h (3 Bft) 97,87 %
15.11.2022 14:56 13,6 C 13,3 C 8,9 C 76 % 1004,9 hPa 0,0 l/m 2 min 0 min 114 W/m 12,9 km/h (3 Bft) 95,74 %
15.11.2022 14:58 13,6 C 13,3 C 8,9 C 76 % 1004,9 hPa 0,0 l/m 2 min 0 min 133 W/m 16,1 km/h (3 Bft) 95,74 %
15.11.2022 15:00 13,6 C 13,3 C 8,9 C 76 % 1004,9 hPa 0,0 l/m 0 min 0 min 92 W/m 16,1 km/h (3 Bft) 95,74 %
15.11.2022 15:02 13,6 C 13,3 C 8,9 C 76 % 1004,9 hPa 0,0 l/m 0 min 0 min 86 W/m 16,1 km/h (3 Bft) 97,83 %
15.11.2022 15:04 13,6 C 12,8 C 8,9 C 76 % 1004,8 hPa 0,0 l/m 0 min 0 min 83 W/m 16,1 km/h (3 Bft) 89,58 %
15.11.2022 15:06 13,6 C 12,8 C 8,9 C 76 % 1004,8 hPa 0,0 l/m 0 min 0 min 78 W/m 12,9 km/h (3 Bft) 95,74 %
15.11.2022 15:08 13,6 C 12,8 C 8,9 C 76 % 1004,8 hPa 0,0 l/m 0 min 0 min 74 W/m 12,9 km/h (3 Bft) 97,87 %
15.11.2022 15:10 13,6 C 12,8 C 8,9 C 76 % 1004,8 hPa 0,0 l/m 0 min 0 min 66 W/m 19,3 km/h (3 Bft) 95,74 %
15.11.2022 15:12 13,5 C 12,8 C 8,9 C 76 % 1004,7 hPa 0,0 l/m 0 min 0 min 59 W/m 12,9 km/h (3 Bft) 95,74 %
15.11.2022 15:14 13,5 C 12,8 C 8,9 C 76 % 1004,7 hPa 0,0 l/m 0 min 0 min 55 W/m 12,9 km/h (3 Bft) 97,83 %
15.11.2022 15:16 13,5 C 12,8 C 8,9 C 77 % 1004,7 hPa 0,0 l/m 0 min 0 min 53 W/m 12,9 km/h (3 Bft) 95,74 %
15.11.2022 15:18 13,4 C 12,8 C 8,9 C 77 % 1004,7 hPa 0,0 l/m 0 min 0 min 50 W/m 9,7 km/h (2 Bft) 97,87 %
15.11.2022 15:20 13,4 C 12,8 C 8,9 C 76 % 1004,6 hPa 0,0 l/m 0 min 0 min 48 W/m 9,7 km/h (2 Bft) 97,87 %
15.11.2022 15:22 13,4 C 12,8 C 8,9 C 76 % 1004,6 hPa 0,0 l/m 0 min 0 min 44 W/m 12,9 km/h (3 Bft) 100,00 %
15.11.2022 15:24 13,4 C 12,8 C 8,9 C 76 % 1004,6 hPa 0,0 l/m 0 min 0 min 43 W/m 12,9 km/h (3 Bft) 100,00 %
15.11.2022 15:26 13,4 C 12,8 C 8,9 C 77 % 1004,5 hPa 0,0 l/m 0 min 0 min 41 W/m 16,1 km/h (3 Bft) 100,00 %
15.11.2022 15:28 13,4 C 12,8 C 8,9 C 77 % 1004,5 hPa 0,0 l/m 0 min 0 min 39 W/m 12,9 km/h (3 Bft) 97,87 %
15.11.2022 15:30 13,4 C 12,8 C 8,9 C 77 % 1004,5 hPa 0,0 l/m 0 min 0 min 39 W/m 16,1 km/h (3 Bft) 97,87 %
15.11.2022 15:32 13,4 C 12,8 C 8,9 C 77 % 1004,4 hPa 0,0 l/m 0 min 0 min 39 W/m 16,1 km/h (3 Bft) 100,00 %
15.11.2022 15:34 13,4 C 12,8 C 8,9 C 77 % 1004,4 hPa 0,0 l/m 0 min 0 min 37 W/m 25,7 km/h (4 Bft) 97,87 %
15.11.2022 15:36 13,4 C 12,8 C 8,9 C 77 % 1004,4 hPa 0,0 l/m 0 min 0 min 36 W/m 16,1 km/h (3 Bft) 100,00 %
15.11.2022 15:38 13,4 C 12,8 C 8,9 C 77 % 1004,4 hPa 0,0 l/m 0 min 0 min 34 W/m 6,4 km/h (2 Bft) 100,00 %
15.11.2022 15:40 13,4 C 12,8 C 8,9 C 77 % 1004,3 hPa 0,0 l/m 0 min 0 min 33 W/m 12,9 km/h (3 Bft) 100,00 %
15.11.2022 15:42 13,4 C 12,8 C 8,9 C 77 % 1004,3 hPa 0,0 l/m 0 min 0 min 35 W/m 12,9 km/h (3 Bft) 95,74 %
15.11.2022 15:44 13,4 C 12,8 C 8,9 C 77 % 1004,3 hPa 0,0 l/m 0 min 0 min 35 W/m 16,1 km/h (3 Bft) 100,00 %
15.11.2022 15:46 13,4 C 12,8 C 8,9 C 78 % 1004,2 hPa 0,0 l/m 0 min 0 min 34 W/m 22,5 km/h (4 Bft) 100,00 %
15.11.2022 15:48 13,4 C 12,8 C 8,9 C 78 % 1004,2 hPa 0,0 l/m 0 min 0 min 32 W/m 16,1 km/h (3 Bft) 100,00 %
15.11.2022 15:50 13,4 C 12,8 C 8,9 C 78 % 1004,2 hPa 0,0 l/m 0 min 0 min 29 W/m 12,9 km/h (3 Bft) 100,00 %
15.11.2022 15:52 13,4 C 12,8 C 8,9 C 78 % 1004,2 hPa 0,0 l/m 0 min 0 min 27 W/m 12,9 km/h (3 Bft) 97,83 %
15.11.2022 15:54 13,4 C 12,8 C 8,9 C 78 % 1004,2 hPa 0,0 l/m 0 min 0 min 25 W/m 16,1 km/h (3 Bft) 100,00 %
15.11.2022 15:56 13,4 C 12,8 C 8,9 C 78 % 1004,1 hPa 0,0 l/m 0 min 0 min 22 W/m 12,9 km/h (3 Bft) 97,87 %
15.11.2022 15:58 13,4 C 12,8 C 8,9 C 78 % 1004,1 hPa 0,0 l/m 0 min 0 min 21 W/m 16,1 km/h (3 Bft) 100,00 %
15.11.2022 16:00 13,4 C 12,8 C 8,9 C 78 % 1004,1 hPa 0,0 l/m 0 min 0 min 22 W/m 12,9 km/h (3 Bft) 95,74 %
15.11.2022 16:02 13,4 C 12,8 C 8,9 C 78 % 1004,0 hPa 0,0 l/m 0 min 0 min 23 W/m 19,3 km/h (3 Bft) 97,87 %
15.11.2022 16:04 13,4 C 12,8 C 8,9 C 78 % 1004,0 hPa 0,0 l/m 0 min 0 min 24 W/m 19,3 km/h (3 Bft) 97,56 %
15.11.2022 16:06 13,4 C 12,8 C 8,9 C 78 % 1004,0 hPa 0,0 l/m 0 min 0 min 25 W/m 22,5 km/h (4 Bft) 97,87 %
15.11.2022 16:08 13,4 C 12,8 C 8,9 C 78 % 1004,0 hPa 0,0 l/m 0 min 0 min 25 W/m 19,3 km/h (3 Bft) 97,87 %
15.11.2022 16:10 13,4 C 12,8 C 8,9 C 78 % 1003,9 hPa 0,0 l/m 0 min 0 min 25 W/m 12,9 km/h (3 Bft) 97,87 %
15.11.2022 16:12 13,4 C 12,8 C 8,9 C 78 % 1003,9 hPa 0,0 l/m 0 min 0 min 25 W/m 22,5 km/h (4 Bft) 95,74 %
15.11.2022 16:14 13,4 C 12,8 C 8,9 C 78 % 1003,9 hPa 0,0 l/m 0 min 0 min 24 W/m 12,9 km/h (3 Bft) 97,83 %
15.11.2022 16:16 13,4 C 12,8 C 8,9 C 79 % 1003,9 hPa 0,0 l/m 0 min 0 min 22 W/m 16,1 km/h (3 Bft) 97,87 %
15.11.2022 16:18 13,4 C 12,8 C 8,9 C 79 % 1003,8 hPa 0,0 l/m 0 min 0 min 20 W/m 16,1 km/h (3 Bft) 97,87 %
15.11.2022 16:20 13,4 C 12,8 C 8,9 C 79 % 1003,8 hPa 0,0 l/m 0 min 0 min 18 W/m 12,9 km/h (3 Bft) 95,74 %
15.11.2022 16:22 13,4 C 12,8 C 8,9 C 79 % 1003,8 hPa 0,0 l/m 0 min 0 min 17 W/m 9,7 km/h (2 Bft) 97,87 %
15.11.2022 16:24 13,4 C 12,8 C 8,9 C 79 % 1003,8 hPa 0,0 l/m 0 min 0 min 14 W/m 6,4 km/h (2 Bft) 95,74 %
15.11.2022 16:26 13,4 C 12,8 C 8,9 C 79 % 1003,8 hPa 0,0 l/m 0 min 0 min 12 W/m 3,2 km/h (1 Bft) 95,65 %
15.11.2022 16:28 13,4 C 12,8 C 8,9 C 79 % 1003,7 hPa 0,0 l/m 0 min 0 min 11 W/m 12,9 km/h (3 Bft) 93,62 %
15.11.2022 16:30 13,4 C 12,8 C 8,9 C 79 % 1003,7 hPa 0,0 l/m 0 min 0 min 10 W/m 25,7 km/h (4 Bft) 91,49 %
15.11.2022 16:32 13,4 C 12,8 C 8,9 C 79 % 1003,7 hPa 0,0 l/m 0 min 0 min 8 W/m 16,1 km/h (3 Bft) 95,74 %
15.11.2022 16:34 13,4 C 12,8 C 8,9 C 79 % 1003,6 hPa 0,0 l/m 0 min 0 min 6 W/m 16,1 km/h (3 Bft) 93,62 %
15.11.2022 16:36 13,3 C 12,8 C 8,9 C 80 % 1003,6 hPa 0,0 l/m 0 min 0 min 5 W/m 19,3 km/h (3 Bft) 93,62 %
15.11.2022 16:38 13,3 C 12,2 C 8,9 C 80 % 1003,6 hPa 0,0 l/m 0 min 0 min 1 W/m 9,7 km/h (2 Bft) 95,65 %
15.11.2022 16:40 13,3 C 12,2 C 8,9 C 80 % 1003,6 hPa 0,0 l/m 0 min 0 min 0 W/m 16,1 km/h (3 Bft) 93,62 %
15.11.2022 16:42 13,3 C 12,2 C 8,9 C 80 % 1003,6 hPa 0,0 l/m 0 min 0 min 0 W/m 12,9 km/h (3 Bft) 93,62 %
15.11.2022 16:44 13,3 C 12,2 C 8,9 C 80 % 1003,6 hPa 0,0 l/m 0 min 0 min 0 W/m 19,3 km/h (3 Bft) 95,74 %
15.11.2022 16:46 13,3 C 12,2 C 8,9 C 80 % 1003,5 hPa 0,0 l/m 0 min 0 min 0 W/m 12,9 km/h (3 Bft) 91,49 %
15.11.2022 16:48 13,3 C 12,2 C 8,9 C 80 % 1003,5 hPa 0,0 l/m 0 min 0 min 0 W/m 25,7 km/h (4 Bft) 95,74 %
15.11.2022 16:50 13,3 C 12,2 C 8,3 C 80 % 1003,5 hPa 0,0 l/m 0 min 0 min 0 W/m 16,1 km/h (3 Bft) 95,65 %
15.11.2022 16:52 13,3 C 12,2 C 8,3 C 80 % 1003,4 hPa 0,0 l/m 0 min 0 min 0 W/m 6,4 km/h (2 Bft) 97,87 %
15.11.2022 16:54 13,3 C 12,2 C 8,3 C 80 % 1003,4 hPa 0,0 l/m 0 min 0 min 0 W/m 6,4 km/h (2 Bft) 95,74 %
15.11.2022 16:56 13,3 C 12,2 C 8,3 C 80 % 1003,4 hPa 0,0 l/m 0 min 0 min 0 W/m 12,9 km/h (3 Bft) 95,74 %
15.11.2022 16:58 13,2 C 12,2 C 8,9 C 80 % 1003,4 hPa 0,0 l/m 0 min 0 min 0 W/m 19,3 km/h (3 Bft) 95,74 %
15.11.2022 17:00 13,3 C 12,2 C 8,3 C 80 % 1003,4 hPa 0,0 l/m 0 min 0 min 0 W/m 12,9 km/h (3 Bft) 95,65 %
15.11.2022 17:02 13,2 C 12,2 C 8,3 C 80 % 1003,3 hPa 0,0 l/m 0 min 0 min 0 W/m 12,9 km/h (3 Bft) 95,74 %
15.11.2022 17:04 13,2 C 12,2 C 8,3 C 80 % 1003,2 hPa 0,0 l/m 0 min 0 min 0 W/m 12,9 km/h (3 Bft) 93,88 %
15.11.2022 17:06 13,2 C 12,2 C 8,9 C 80 % 1003,3 hPa 0,0 l/m 0 min 0 min 0 W/m 16,1 km/h (3 Bft) 95,74 %
15.11.2022 17:08 13,2 C 12,2 C 8,9 C 81 % 1003,2 hPa 0,0 l/m 0 min 0 min 0 W/m 16,1 km/h (3 Bft) 95,74 %
15.11.2022 17:10 13,2 C 12,2 C 8,3 C 81 % 1003,2 hPa 0,0 l/m 0 min 0 min 0 W/m 12,9 km/h (3 Bft) 97,87 %
15.11.2022 17:12 13,2 C 12,2 C 8,3 C 81 % 1003,3 hPa 0,0 l/m 0 min 0 min 0 W/m 12,9 km/h (3 Bft) 97,83 %
15.11.2022 17:14 13,2 C 12,2 C 8,3 C 81 % 1003,2 hPa 0,0 l/m 0 min 0 min 0 W/m 12,9 km/h (3 Bft) 91,49 %
15.11.2022 17:16 13,2 C 12,2 C 8,3 C 81 % 1003,1 hPa 0,0 l/m 0 min 0 min 0 W/m 12,9 km/h (3 Bft) 93,62 %
15.11.2022 17:18 13,2 C 12,2 C 8,3 C 81 % 1003,0 hPa 0,0 l/m 0 min 0 min 0 W/m 16,1 km/h (3 Bft) 97,87 %
15.11.2022 17:20 13,2 C 12,2 C 8,3 C 81 % 1003,0 hPa 0,0 l/m 0 min 0 min 0 W/m 16,1 km/h (3 Bft) 93,62 %
15.11.2022 17:22 13,2 C 12,2 C 8,3 C 81 % 1002,9 hPa 0,0 l/m 0 min 0 min 0 W/m 16,1 km/h (3 Bft) 97,87 %
15.11.2022 17:24 13,2 C 12,2 C 8,3 C 81 % 1002,9 hPa 0,0 l/m 0 min 0 min 0 W/m 19,3 km/h (3 Bft) 100,00 %
15.11.2022 17:26 13,2 C 12,2 C 8,3 C 81 % 1003,0 hPa 0,0 l/m 0 min 0 min 0 W/m 12,9 km/h (3 Bft) 100,00 %
15.11.2022 17:28 13,2 C 12,2 C 8,3 C 81 % 1003,0 hPa 0,0 l/m 0 min 0 min 0 W/m 9,7 km/h (2 Bft) 95,74 %
15.11.2022 17:30 13,2 C 12,2 C 8,3 C 81 % 1002,9 hPa 0,0 l/m 0 min 0 min 0 W/m 19,3 km/h (3 Bft) 100,00 %
15.11.2022 17:32 13,2 C 12,2 C 8,3 C 81 % 1002,9 hPa 0,0 l/m 0 min 0 min 0 W/m 22,5 km/h (4 Bft) 97,87 %
15.11.2022 17:34 13,2 C 12,2 C 8,9 C 81 % 1002,9 hPa 0,0 l/m 0 min 0 min 0 W/m 19,3 km/h (3 Bft) 100,00 %
15.11.2022 17:36 13,2 C 12,2 C 8,9 C 81 % 1002,9 hPa 0,0 l/m 0 min 0 min 0 W/m 12,9 km/h (3 Bft) 100,00 %
15.11.2022 17:38 13,2 C 12,2 C 8,3 C 81 % 1002,8 hPa 0,0 l/m 0 min 0 min 0 W/m 19,3 km/h (3 Bft) 100,00 %
15.11.2022 17:40 13,2 C 12,2 C 8,9 C 81 % 1002,9 hPa 0,0 l/m 0 min 0 min 0 W/m 19,3 km/h (3 Bft) 100,00 %
15.11.2022 17:42 13,2 C 12,2 C 8,9 C 81 % 1002,9 hPa 0,0 l/m 0 min 0 min 0 W/m 22,5 km/h (4 Bft) 100,00 %
15.11.2022 17:44 13,2 C 12,8 C 8,9 C 81 % 1002,8 hPa 0,0 l/m 0 min 0 min 0 W/m 19,3 km/h (3 Bft) 100,00 %
15.11.2022 17:46 13,3 C 12,8 C 8,9 C 81 % 1002,9 hPa 0,0 l/m 0 min 0 min 0 W/m 22,5 km/h (4 Bft) 100,00 %
15.11.2022 17:48 13,3 C 12,8 C 8,9 C 81 % 1002,8 hPa 0,0 l/m 0 min 0 min 0 W/m 19,3 km/h (3 Bft) 100,00 %
15.11.2022 17:50 13,3 C 12,8 C 8,9 C 81 % 1002,8 hPa 0,0 l/m 0 min 0 min 0 W/m 19,3 km/h (3 Bft) 55,32 %
15.11.2022 17:52 13,3 C 12,8 C 8,9 C 81 % 1002,8 hPa 0,0 l/m 0 min 0 min 0 W/m 12,9 km/h (3 Bft) 100,00 %
15.11.2022 17:54 13,3 C 12,8 C 8,9 C 81 % 1002,9 hPa 0,0 l/m 0 min 0 min 0 W/m 22,5 km/h (4 Bft) 100,00 %
15.11.2022 17:56 13,3 C 12,8 C 8,9 C 81 % 1002,7 hPa 0,0 l/m 0 min 0 min 0 W/m 16,1 km/h (3 Bft) 97,87 %
15.11.2022 17:58 13,3 C 12,8 C 8,9 C 81 % 1002,8 hPa 0,0 l/m 0 min 0 min 0 W/m 16,1 km/h (3 Bft) 100,00 %
15.11.2022 18:00 13,3 C 12,8 C 8,9 C 81 % 1002,8 hPa 0,0 l/m 0 min 0 min 0 W/m 16,1 km/h (3 Bft) 100,00 %
15.11.2022 18:02 13,3 C 12,8 C 8,9 C 81 % 1002,8 hPa 0,0 l/m 0 min 0 min 0 W/m 12,9 km/h (3 Bft) 100,00 %
15.11.2022 18:04 13,3 C 12,8 C 8,9 C 81 % 1002,9 hPa 0,0 l/m 0 min 0 min 0 W/m 22,5 km/h (4 Bft) 100,00 %
15.11.2022 18:08 13,3 C 12,8 C 8,9 C 81 % 1002,9 hPa 0,0 l/m 0 min 0 min 0 W/m 19,3 km/h (3 Bft) 96,34 %
15.11.2022 18:10 13,3 C 12,8 C 8,9 C 81 % 1002,9 hPa 0,0 l/m 0 min 0 min 0 W/m 12,9 km/h (3 Bft) 100,00 %
15.11.2022 18:12 13,3 C 12,8 C 8,9 C 81 % 1002,9 hPa 0,0 l/m 0 min 0 min 0 W/m 16,1 km/h (3 Bft) 100,00 %
15.11.2022 18:14 13,3 C 12,8 C 8,9 C 81 % 1002,9 hPa 0,0 l/m 0 min 0 min 0 W/m 19,3 km/h (3 Bft) 100,00 %
15.11.2022 18:16 13,4 C 12,8 C 8,9 C 81 % 1002,8 hPa 0,0 l/m 0 min 0 min 0 W/m 19,3 km/h (3 Bft) 100,00 %
15.11.2022 18:18 13,3 C 12,8 C 8,9 C 81 % 1002,9 hPa 0,0 l/m 0 min 0 min 0 W/m 16,1 km/h (3 Bft) 100,00 %
15.11.2022 18:20 13,4 C 12,8 C 8,9 C 81 % 1002,9 hPa 0,0 l/m 0 min 0 min 0 W/m 29,0 km/h (5 Bft) 100,00 %
15.11.2022 18:22 13,4 C 12,8 C 8,9 C 81 % 1002,9 hPa 0,0 l/m 0 min 0 min 0 W/m 19,3 km/h (3 Bft) 100,00 %
15.11.2022 18:24 13,4 C 12,8 C 8,9 C 81 % 1003,0 hPa 0,0 l/m 0 min 0 min 0 W/m 19,3 km/h (3 Bft) 97,87 %
15.11.2022 18:26 13,4 C 12,8 C 8,9 C 81 % 1002,9 hPa 0,0 l/m 0 min 0 min 0 W/m 12,9 km/h (3 Bft) 100,00 %
15.11.2022 18:28 13,4 C 12,8 C 8,9 C 81 % 1002,9 hPa 0,0 l/m 0 min 0 min 0 W/m 19,3 km/h (3 Bft) 97,83 %
15.11.2022 18:30 13,4 C 12,8 C 8,9 C 81 % 1002,9 hPa 0,0 l/m 0 min 0 min 0 W/m 22,5 km/h (4 Bft) 95,74 %
15.11.2022 18:32 13,4 C 12,8 C 8,9 C 81 % 1002,9 hPa 0,0 l/m 0 min 0 min 0 W/m 19,3 km/h (3 Bft) 100,00 %
15.11.2022 18:34 13,3 C 12,2 C 8,9 C 82 % 1002,9 hPa 0,0 l/m 0 min 0 min 0 W/m 32,2 km/h (5 Bft) 100,00 %
15.11.2022 18:36 13,3 C 12,2 C 8,9 C 82 % 1002,9 hPa 0,0 l/m 0 min 0 min 0 W/m 19,3 km/h (3 Bft) 100,00 %
15.11.2022 18:38 13,3 C 12,2 C 8,9 C 82 % 1002,9 hPa 0,0 l/m 0 min 0 min 0 W/m 16,1 km/h (3 Bft) 97,87 %
15.11.2022 18:40 13,3 C 12,2 C 8,9 C 82 % 1002,9 hPa 0,0 l/m 0 min 0 min 0 W/m 9,7 km/h (2 Bft) 97,83 %
15.11.2022 18:42 13,3 C 12,2 C 8,9 C 82 % 1002,9 hPa 0,0 l/m 0 min 0 min 0 W/m 16,1 km/h (3 Bft) 100,00 %
15.11.2022 18:44 13,3 C 12,2 C 8,3 C 82 % 1002,9 hPa 0,0 l/m 0 min 0 min 0 W/m 12,9 km/h (3 Bft) 100,00 %
15.11.2022 18:46 13,3 C 12,2 C 8,3 C 83 % 1002,9 hPa 0,0 l/m 0 min 0 min 0 W/m 16,1 km/h (3 Bft) 100,00 %
15.11.2022 18:48 13,2 C 12,2 C 8,3 C 83 % 1002,9 hPa 0,0 l/m 0 min 0 min 0 W/m 12,9 km/h (3 Bft) 93,62 %
15.11.2022 18:50 13,2 C 12,2 C 8,3 C 83 % 1002,8 hPa 0,0 l/m 0 min 0 min 0 W/m 12,9 km/h (3 Bft) 93,62 %
15.11.2022 18:52 13,2 C 12,2 C 8,3 C 83 % 1002,8 hPa 0,0 l/m 0 min 2 min 0 W/m 16,1 km/h (3 Bft) 93,48 %
15.11.2022 18:54 13,1 C 12,2 C 8,3 C 83 % 1002,8 hPa 0,0 l/m 0 min 0 min 0 W/m 12,9 km/h (3 Bft) 95,74 %
15.11.2022 18:56 13,1 C 12,2 C 8,3 C 84 % 1002,8 hPa 0,0 l/m 0 min 2 min 0 W/m 12,9 km/h (3 Bft) 95,74 %
15.11.2022 18:58 13,1 C 12,2 C 8,3 C 84 % 1002,8 hPa 0,0 l/m 0 min 2 min 0 W/m 16,1 km/h (3 Bft) 93,62 %
15.11.2022 19:00 13,1 C 12,2 C 7,8 C 84 % 1002,8 hPa 0,0 l/m 0 min 2 min 0 W/m 22,5 km/h (4 Bft) 95,74 %
15.11.2022 19:02 13,0 C 12,2 C 7,8 C 84 % 1002,8 hPa 0,0 l/m 0 min 2 min 0 W/m 16,1 km/h (3 Bft) 91,30 %
15.11.2022 19:04 13,0 C 11,7 C 7,8 C 85 % 1002,7 hPa 0,0 l/m 0 min 2 min 0 W/m 12,9 km/h (3 Bft) 89,58 %
15.11.2022 19:06 12,9 C 11,7 C 7,2 C 85 % 1002,7 hPa 0,2 l/m 0 min 2 min 0 W/m 16,1 km/h (3 Bft) 96,61 %
15.11.2022 19:08 12,9 C 11,7 C 7,2 C 85 % 1002,7 hPa 0,0 l/m 0 min 2 min 0 W/m 22,5 km/h (4 Bft) 91,43 %
15.11.2022 19:10 12,9 C 11,7 C 7,2 C 86 % 1002,7 hPa 0,0 l/m 0 min 2 min 0 W/m 16,1 km/h (3 Bft) 89,36 %
15.11.2022 19:12 12,8 C 11,7 C 6,7 C 86 % 1002,6 hPa 0,0 l/m 0 min 2 min 0 W/m 16,1 km/h (3 Bft) 87,23 %
15.11.2022 19:14 12,8 C 11,7 C 6,7 C 86 % 1002,7 hPa 0,0 l/m 0 min 2 min 0 W/m 12,9 km/h (3 Bft) 91,30 %
15.11.2022 19:16 12,7 C 11,7 C 6,7 C 87 % 1002,6 hPa 0,0 l/m 0 min 2 min 0 W/m 12,9 km/h (3 Bft) 89,36 %
15.11.2022 19:18 12,7 C 11,1 C 6,7 C 87 % 1002,6 hPa 0,0 l/m 0 min 2 min 0 W/m 12,9 km/h (3 Bft) 91,49 %
15.11.2022 19:20 12,7 C 11,1 C 6,7 C 87 % 1002,5 hPa 0,2 l/m 0 min 2 min 0 W/m 12,9 km/h (3 Bft) 95,74 %
15.11.2022 19:22 12,6 C 11,1 C 6,7 C 88 % 1002,5 hPa 0,0 l/m 0 min 2 min 0 W/m 9,7 km/h (2 Bft) 93,62 %
15.11.2022 19:24 12,6 C 11,1 C 6,7 C 88 % 1002,5 hPa 0,0 l/m 0 min 2 min 0 W/m 16,1 km/h (3 Bft) 95,74 %
15.11.2022 19:26 12,6 C 11,1 C 6,7 C 88 % 1002,5 hPa 0,0 l/m 0 min 2 min 0 W/m 12,9 km/h (3 Bft) 93,48 %
15.11.2022 19:28 12,5 C 11,1 C 6,7 C 88 % 1002,5 hPa 0,0 l/m 0 min 2 min 0 W/m 12,9 km/h (3 Bft) 93,62 %
15.11.2022 19:30 12,4 C 11,1 C 6,7 C 89 % 1002,5 hPa 0,2 l/m 0 min 2 min 0 W/m 12,9 km/h (3 Bft) 95,74 %
15.11.2022 19:37 12,3 C 11,1 C 6,7 C 89 % 1002,3 hPa 0,0 l/m 0 min 5 min 0 W/m 12,9 km/h (3 Bft) 100,00 %
15.11.2022 19:38 12,3 C 11,1 C 6,7 C 89 % 1002,3 hPa 0,0 l/m 0 min 1 min 0 W/m 3,2 km/h (1 Bft) 91,30 %
15.11.2022 19:40 12,3 C 11,1 C 6,7 C 90 % 1002,4 hPa 0,0 l/m 0 min 2 min 0 W/m 9,7 km/h (2 Bft) 95,74 %
15.11.2022 19:42 12,2 C 11,1 C 6,7 C 90 % 1002,3 hPa 0,0 l/m 0 min 2 min 0 W/m 9,7 km/h (2 Bft) 95,74 %
15.11.2022 19:44 12,2 C 11,1 C 6,7 C 90 % 1002,3 hPa 0,0 l/m 0 min 2 min 0 W/m 22,5 km/h (4 Bft) 97,87 %
15.11.2022 19:46 12,2 C 11,1 C 6,7 C 90 % 1002,3 hPa 0,2 l/m 0 min 2 min 0 W/m 6,4 km/h (2 Bft) 97,87 %
15.11.2022 19:48 12,1 C 11,1 C 6,7 C 90 % 1002,3 hPa 0,0 l/m 0 min 2 min 0 W/m 12,9 km/h (3 Bft) 93,48 %
15.11.2022 19:50 12,1 C 11,1 C 6,7 C 90 % 1002,3 hPa 0,0 l/m 0 min 2 min 0 W/m 6,4 km/h (2 Bft) 97,87 %
15.11.2022 19:52 12,1 C 11,1 C 6,7 C 91 % 1002,3 hPa 0,0 l/m 0 min 2 min 0 W/m 16,1 km/h (3 Bft) 95,74 %
15.11.2022 19:54 12,1 C 11,1 C 6,7 C 91 % 1002,3 hPa 0,0 l/m 0 min 2 min 0 W/m 12,9 km/h (3 Bft) 97,87 %
15.11.2022 19:56 12,1 C 11,1 C 6,7 C 91 % 1002,2 hPa 0,2 l/m 0 min 2 min 0 W/m 19,3 km/h (3 Bft) 97,87 %
15.11.2022 19:58 12,1 C 11,1 C 6,7 C 91 % 1002,3 hPa 0,0 l/m 0 min 2 min 0 W/m 12,9 km/h (3 Bft) 93,62 %
15.11.2022 20:00 12,1 C 11,1 C 6,7 C 91 % 1002,3 hPa 0,0 l/m 0 min 2 min 0 W/m 9,7 km/h (2 Bft) 95,65 %
15.11.2022 20:02 12,0 C 11,1 C 6,7 C 91 % 1002,2 hPa 0,0 l/m 0 min 2 min 0 W/m 22,5 km/h (4 Bft) 95,74 %
15.11.2022 20:04 12,0 C 11,1 C 6,7 C 92 % 1002,3 hPa 0,0 l/m 0 min 2 min 0 W/m 16,1 km/h (3 Bft) 97,87 %
15.11.2022 20:06 12,0 C 10,6 C 6,7 C 92 % 1002,3 hPa 0,2 l/m 0 min 2 min 0 W/m 12,9 km/h (3 Bft) 100,00 %
15.11.2022 20:08 11,9 C 10,6 C 6,7 C 92 % 1002,2 hPa 0,0 l/m 0 min 2 min 0 W/m 16,1 km/h (3 Bft) 100,00 %
15.11.2022 20:10 11,9 C 10,6 C 6,7 C 92 % 1002,2 hPa 0,0 l/m 0 min 2 min 0 W/m 16,1 km/h (3 Bft) 100,00 %
15.11.2022 20:12 11,9 C 10,6 C 6,7 C 92 % 1002,2 hPa 0,0 l/m 0 min 2 min 0 W/m 16,1 km/h (3 Bft) 100,00 %
15.11.2022 20:14 11,9 C 10,6 C 6,7 C 92 % 1002,2 hPa 0,0 l/m 0 min 0 min 0 W/m 29,0 km/h (5 Bft) 97,87 %
15.11.2022 20:16 11,9 C 10,6 C 6,7 C 92 % 1002,1 hPa 0,0 l/m 0 min 2 min 0 W/m 12,9 km/h (3 Bft) 100,00 %
15.11.2022 20:18 11,8 C 10,6 C 6,7 C 93 % 1002,1 hPa 0,0 l/m 0 min 2 min 0 W/m 12,9 km/h (3 Bft) 100,00 %
15.11.2022 20:20 11,8 C 10,6 C 6,7 C 93 % 1002,1 hPa 0,0 l/m 0 min 2 min 0 W/m 6,4 km/h (2 Bft) 100,00 %
15.11.2022 20:22 11,8 C 10,6 C 6,7 C 93 % 1002,1 hPa 0,0 l/m 0 min 2 min 0 W/m 12,9 km/h (3 Bft) 97,87 %
15.11.2022 20:24 11,8 C 10,6 C 6,7 C 93 % 1002,1 hPa 0,0 l/m 0 min 2 min 0 W/m 6,4 km/h (2 Bft) 100,00 %
15.11.2022 20:26 11,8 C 10,6 C 6,7 C 93 % 1002,1 hPa 0,0 l/m 0 min 2 min 0 W/m 12,9 km/h (3 Bft) 100,00 %
15.11.2022 20:28 11,8 C 10,6 C 6,7 C 93 % 1002,1 hPa 0,0 l/m 0 min 0 min 0 W/m 9,7 km/h (2 Bft) 100,00 %
15.11.2022 20:30 11,8 C 10,6 C 6,7 C 93 % 1002,1 hPa 0,0 l/m 0 min 2 min 0 W/m 12,9 km/h (3 Bft) 100,00 %
15.11.2022 20:32 11,8 C 10,6 C 6,7 C 94 % 1002,1 hPa 0,0 l/m 0 min 2 min 0 W/m 3,2 km/h (1 Bft) 97,87 %
15.11.2022 20:34 11,8 C 10,6 C 6,7 C 94 % 1002,0 hPa 0,2 l/m 0 min 2 min 0 W/m 6,4 km/h (2 Bft) 97,87 %
15.11.2022 20:36 11,8 C 10,6 C 7,2 C 94 % 1002,0 hPa 0,0 l/m 0 min 2 min 0 W/m 9,7 km/h (2 Bft) 100,00 %
15.11.2022 20:38 11,8 C 10,6 C 7,2 C 94 % 1002,0 hPa 0,0 l/m 0 min 0 min 0 W/m 19,3 km/h (3 Bft) 97,87 %
15.11.2022 20:40 11,7 C 10,6 C 7,2 C 94 % 1002,1 hPa 0,0 l/m 0 min 2 min 0 W/m 9,7 km/h (2 Bft) 97,87 %
15.11.2022 20:42 11,7 C 10,6 C 7,2 C 94 % 1002,1 hPa 0,0 l/m 0 min 2 min 0 W/m 12,9 km/h (3 Bft) 97,87 %
15.11.2022 20:44 11,7 C 10,6 C 7,2 C 94 % 1002,1 hPa 0,0 l/m 0 min 2 min 0 W/m 19,3 km/h (3 Bft) 97,87 %
15.11.2022 20:46 11,7 C 10,6 C 7,2 C 94 % 1002,1 hPa 0,0 l/m 0 min 2 min 0 W/m 12,9 km/h (3 Bft) 97,83 %
15.11.2022 20:48 11,7 C 10,6 C 7,2 C 94 % 1002,0 hPa 0,0 l/m 0 min 2 min 0 W/m 22,5 km/h (4 Bft) 97,87 %
15.11.2022 20:50 11,7 C 10,6 C 7,2 C 94 % 1002,0 hPa 0,0 l/m 0 min 2 min 0 W/m 16,1 km/h (3 Bft) 95,74 %
15.11.2022 20:52 11,7 C 10,6 C 7,2 C 94 % 1001,9 hPa 0,0 l/m 0 min 2 min 0 W/m 12,9 km/h (3 Bft) 97,87 %
15.11.2022 20:54 11,7 C 10,6 C 7,2 C 94 % 1001,9 hPa 0,2 l/m 0 min 2 min 0 W/m 6,4 km/h (2 Bft) 97,87 %
15.11.2022 20:56 11,7 C 10,6 C 7,2 C 94 % 1001,9 hPa 0,0 l/m 0 min 2 min 0 W/m 6,4 km/h (2 Bft) 97,87 %
15.11.2022 20:58 11,7 C 10,6 C 7,2 C 94 % 1001,9 hPa 0,0 l/m 0 min 2 min 0 W/m 16,1 km/h (3 Bft) 97,87 %
15.11.2022 21:00 11,7 C 10,6 C 7,2 C 95 % 1001,9 hPa 0,0 l/m 0 min 2 min 0 W/m 16,1 km/h (3 Bft) 97,83 %
15.11.2022 21:02 11,7 C 10,6 C 7,2 C 95 % 1001,9 hPa 0,0 l/m 0 min 2 min 0 W/m 16,1 km/h (3 Bft) 97,87 %
15.11.2022 21:04 11,7 C 10,6 C 7,2 C 95 % 1001,9 hPa 0,0 l/m 0 min 2 min 0 W/m 16,1 km/h (3 Bft) 95,74 %
15.11.2022 21:06 11,7 C 10,6 C 7,2 C 95 % 1001,8 hPa 0,0 l/m 0 min 2 min 0 W/m 19,3 km/h (3 Bft) 95,74 %
15.11.2022 21:08 11,7 C 10,6 C 7,2 C 95 % 1001,8 hPa 0,2 l/m 0 min 2 min 0 W/m 12,9 km/h (3 Bft) 97,87 %
15.11.2022 21:10 11,7 C 10,6 C 7,2 C 95 % 1001,8 hPa 0,0 l/m 0 min 2 min 0 W/m 12,9 km/h (3 Bft) 97,83 %
15.11.2022 21:12 11,7 C 10,6 C 7,2 C 95 % 1001,8 hPa 0,0 l/m 0 min 2 min 0 W/m 12,9 km/h (3 Bft) 97,87 %
15.11.2022 21:14 11,7 C 10,6 C 7,2 C 95 % 1001,8 hPa 0,0 l/m 0 min 0 min 0 W/m 16,1 km/h (3 Bft) 97,87 %
15.11.2022 21:16 11,7 C 10,6 C 7,2 C 95 % 1001,7 hPa 0,0 l/m 0 min 2 min 0 W/m 16,1 km/h (3 Bft) 95,74 %
15.11.2022 21:18 11,6 C 10,6 C 7,2 C 95 % 1001,7 hPa 0,0 l/m 0 min 0 min 0 W/m 19,3 km/h (3 Bft) 97,87 %
15.11.2022 21:20 11,6 C 10,6 C 7,2 C 95 % 1001,7 hPa 0,0 l/m 0 min 0 min 0 W/m 12,9 km/h (3 Bft) 97,87 %
15.11.2022 21:22 11,6 C 10,6 C 7,2 C 95 % 1001,7 hPa 0,0 l/m 0 min 0 min 0 W/m 12,9 km/h (3 Bft) 93,48 %
15.11.2022 21:24 11,6 C 10,6 C 7,2 C 95 % 1001,7 hPa 0,0 l/m 0 min 0 min 0 W/m 16,1 km/h (3 Bft) 97,87 %
15.11.2022 21:26 11,6 C 10,6 C 7,2 C 95 % 1001,7 hPa 0,0 l/m 0 min 0 min 0 W/m 19,3 km/h (3 Bft) 95,74 %
15.11.2022 21:28 11,6 C 10,6 C 7,2 C 95 % 1001,7 hPa 0,0 l/m 0 min 0 min 0 W/m 6,4 km/h (2 Bft) 97,87 %
15.11.2022 21:30 11,6 C 10,6 C 7,2 C 95 % 1001,7 hPa 0,0 l/m 0 min 0 min 0 W/m 16,1 km/h (3 Bft) 97,87 %
15.11.2022 21:32 11,6 C 10,6 C 7,2 C 95 % 1001,7 hPa 0,0 l/m 0 min 0 min 0 W/m 9,7 km/h (2 Bft) 93,62 %
15.11.2022 21:34 11,6 C 10,6 C 7,2 C 95 % 1001,7 hPa 0,0 l/m 0 min 0 min 0 W/m 16,1 km/h (3 Bft) 97,87 %
15.11.2022 21:36 11,6 C 10,6 C 7,2 C 96 % 1001,7 hPa 0,0 l/m 0 min 0 min 0 W/m 12,9 km/h (3 Bft) 97,83 %
15.11.2022 21:38 11,6 C 10,6 C 7,2 C 96 % 1001,7 hPa 0,0 l/m 0 min 2 min 0 W/m 12,9 km/h (3 Bft) 97,87 %
15.11.2022 21:40 11,6 C 10,6 C 7,2 C 96 % 1001,6 hPa 0,0 l/m 0 min 2 min 0 W/m 19,3 km/h (3 Bft) 97,87 %
15.11.2022 21:42 11,6 C 10,6 C 7,2 C 96 % 1001,6 hPa 0,0 l/m 0 min 2 min 0 W/m 12,9 km/h (3 Bft) 97,87 %
15.11.2022 21:44 11,6 C 10,6 C 7,2 C 96 % 1001,6 hPa 0,0 l/m 0 min 2 min 0 W/m 19,3 km/h (3 Bft) 97,87 %
15.11.2022 21:46 11,6 C 10,6 C 7,2 C 96 % 1001,5 hPa 0,0 l/m 0 min 2 min 0 W/m 12,9 km/h (3 Bft) 97,83 %
15.11.2022 21:48 11,6 C 10,6 C 7,2 C 96 % 1001,6 hPa 0,2 l/m 0 min 2 min 0 W/m 12,9 km/h (3 Bft) 95,74 %
15.11.2022 21:50 11,6 C 10,6 C 7,2 C 96 % 1001,5 hPa 0,0 l/m 0 min 2 min 0 W/m 12,9 km/h (3 Bft) 97,87 %
15.11.2022 21:52 11,6 C 10,6 C 7,2 C 96 % 1001,6 hPa 0,0 l/m 0 min 2 min 0 W/m 9,7 km/h (2 Bft) 95,74 %
15.11.2022 21:54 11,6 C 10,6 C 7,2 C 96 % 1001,5 hPa 0,0 l/m 0 min 2 min 0 W/m 22,5 km/h (4 Bft) 97,87 %
15.11.2022 21:56 11,6 C 10,6 C 7,2 C 96 % 1001,5 hPa 0,0 l/m 0 min 2 min 0 W/m 16,1 km/h (3 Bft) 100,00 %
15.11.2022 21:58 11,6 C 10,6 C 7,2 C 96 % 1001,5 hPa 0,0 l/m 0 min 2 min 0 W/m 19,3 km/h (3 Bft) 97,83 %
15.11.2022 22:00 11,6 C 10,6 C 7,2 C 96 % 1001,5 hPa 0,0 l/m 0 min 2 min 0 W/m 9,7 km/h (2 Bft) 97,87 %
15.11.2022 22:02 11,6 C 10,6 C 7,2 C 96 % 1001,5 hPa 0,0 l/m 0 min 2 min 0 W/m 6,4 km/h (2 Bft) 100,00 %
15.11.2022 22:04 11,6 C 10,6 C 7,2 C 96 % 1001,5 hPa 0,0 l/m 0 min 2 min 0 W/m 12,9 km/h (3 Bft) 100,00 %
15.11.2022 22:06 11,6 C 10,6 C 7,2 C 96 % 1001,4 hPa 0,0 l/m 0 min 2 min 0 W/m 6,4 km/h (2 Bft) 100,00 %
15.11.2022 22:08 11,6 C 10,6 C 7,2 C 96 % 1001,5 hPa 0,0 l/m 0 min 2 min 0 W/m 16,1 km/h (3 Bft) 100,00 %
15.11.2022 22:10 11,6 C 10,6 C 7,2 C 96 % 1001,4 hPa 0,0 l/m 0 min 2 min 0 W/m 6,4 km/h (2 Bft) 100,00 %
15.11.2022 22:12 11,6 C 10,6 C 7,2 C 96 % 1001,4 hPa 0,0 l/m 0 min 2 min 0 W/m 16,1 km/h (3 Bft) 97,87 %
15.11.2022 22:14 11,6 C 10,6 C 7,2 C 96 % 1001,4 hPa 0,0 l/m 0 min 2 min 0 W/m 19,3 km/h (3 Bft) 100,00 %
15.11.2022 22:16 11,6 C 10,6 C 7,2 C 96 % 1001,4 hPa 0,0 l/m 0 min 2 min 0 W/m 9,7 km/h (2 Bft) 93,62 %
15.11.2022 22:18 11,6 C 10,6 C 7,2 C 96 % 1001,3 hPa 0,0 l/m 0 min 2 min 0 W/m 12,9 km/h (3 Bft) 95,74 %
15.11.2022 22:20 11,6 C 10,6 C 7,2 C 96 % 1001,3 hPa 0,2 l/m 0 min 2 min 0 W/m 19,3 km/h (3 Bft) 95,74 %
15.11.2022 22:22 11,6 C 10,6 C 7,2 C 96 % 1001,3 hPa 0,0 l/m 0 min 2 min 0 W/m 12,9 km/h (3 Bft) 80,43 %
15.11.2022 22:24 11,6 C 10,6 C 7,2 C 96 % 1001,3 hPa 0,0 l/m 0 min 2 min 0 W/m 6,4 km/h (2 Bft) 57,45 %
15.11.2022 22:26 11,6 C 10,6 C 7,2 C 96 % 1001,3 hPa 0,0 l/m 0 min 2 min 0 W/m 12,9 km/h (3 Bft) 65,96 %
15.11.2022 22:28 11,5 C 10,6 C 7,2 C 97 % 1001,2 hPa 0,0 l/m 0 min 2 min 0 W/m 16,1 km/h (3 Bft) 63,83 %
15.11.2022 22:30 11,5 C 10,6 C 7,2 C 97 % 1001,3 hPa 0,0 l/m 0 min 2 min 0 W/m 16,1 km/h (3 Bft) 46,81 %
15.11.2022 22:32 11,5 C 10,6 C 7,2 C 96 % 1001,3 hPa 0,0 l/m 0 min 2 min 0 W/m 12,9 km/h (3 Bft) 38,30 %
15.11.2022 22:34 11,5 C 10,6 C 7,2 C 96 % 1001,3 hPa 0,0 l/m 0 min 2 min 0 W/m 16,1 km/h (3 Bft) 36,96 %
15.11.2022 22:36 11,5 C 10,6 C 7,2 C 96 % 1001,2 hPa 0,0 l/m 0 min 2 min 0 W/m 12,9 km/h (3 Bft) 74,47 %
15.11.2022 22:38 11,5 C 10,6 C 7,2 C 96 % 1001,2 hPa 0,0 l/m 0 min 2 min 0 W/m 22,5 km/h (4 Bft) 82,98 %
15.11.2022 22:40 11,5 C 10,6 C 7,2 C 96 % 1001,1 hPa 0,0 l/m 0 min 2 min 0 W/m 6,4 km/h (2 Bft) 42,55 %
15.11.2022 22:42 11,5 C 10,6 C 7,2 C 97 % 1001,0 hPa 0,0 l/m 0 min 2 min 0 W/m 19,3 km/h (3 Bft) 89,36 %
15.11.2022 22:44 11,5 C 10,6 C 7,2 C 97 % 1001,1 hPa 0,0 l/m 0 min 2 min 0 W/m 25,7 km/h (4 Bft) 93,62 %
15.11.2022 22:46 11,5 C 10,6 C 7,2 C 97 % 1001,0 hPa 0,0 l/m 0 min 2 min 0 W/m 12,9 km/h (3 Bft) 93,48 %
15.11.2022 22:48 11,4 C 10,6 C 7,2 C 97 % 1001,0 hPa 0,2 l/m 0 min 2 min 0 W/m 19,3 km/h (3 Bft) 95,74 %
15.11.2022 22:50 11,4 C 10,6 C 7,2 C 97 % 1001,0 hPa 0,0 l/m 0 min 2 min 0 W/m 16,1 km/h (3 Bft) 93,62 %
15.11.2022 22:52 11,4 C 10,6 C 7,2 C 97 % 1000,9 hPa 0,0 l/m 0 min 2 min 0 W/m 19,3 km/h (3 Bft) 91,49 %
15.11.2022 22:54 11,4 C 10,6 C 7,2 C 97 % 1001,0 hPa 0,0 l/m 0 min 2 min 0 W/m 16,1 km/h (3 Bft) 93,62 %
15.11.2022 22:56 11,4 C 10,6 C 7,2 C 97 % 1000,9 hPa 0,0 l/m 0 min 2 min 0 W/m 19,3 km/h (3 Bft) 95,74 %
15.11.2022 22:58 11,4 C 10,6 C 7,2 C 97 % 1000,9 hPa 0,0 l/m 0 min 2 min 0 W/m 16,1 km/h (3 Bft) 95,65 %
15.11.2022 23:00 11,4 C 10,6 C 7,2 C 97 % 1000,9 hPa 0,0 l/m 0 min 2 min 0 W/m 16,1 km/h (3 Bft) 93,62 %
15.11.2022 23:02 11,4 C 10,6 C 7,2 C 97 % 1000,8 hPa 0,0 l/m 0 min 2 min 0 W/m 16,1 km/h (3 Bft) 95,74 %
15.11.2022 23:04 11,4 C 10,6 C 7,2 C 97 % 1000,8 hPa 0,0 l/m 0 min 2 min 0 W/m 22,5 km/h (4 Bft) 97,87 %
15.11.2022 23:06 11,4 C 10,6 C 7,2 C 97 % 1000,9 hPa 0,0 l/m 0 min 2 min 0 W/m 22,5 km/h (4 Bft) 95,74 %
15.11.2022 23:08 11,4 C 10,6 C 7,2 C 97 % 1000,9 hPa 0,2 l/m 0 min 2 min 0 W/m 12,9 km/h (3 Bft) 100,00 %
15.11.2022 23:10 11,4 C 10,6 C 7,2 C 97 % 1000,8 hPa 0,0 l/m 0 min 2 min 0 W/m 22,5 km/h (4 Bft) 100,00 %
15.11.2022 23:12 11,4 C 10,6 C 7,2 C 97 % 1000,8 hPa 0,2 l/m 0 min 2 min 0 W/m 9,7 km/h (2 Bft) 97,87 %
15.11.2022 23:14 11,4 C 10,6 C 7,2 C 97 % 1000,8 hPa 0,0 l/m 0 min 2 min 0 W/m 12,9 km/h (3 Bft) 97,87 %
15.11.2022 23:16 11,4 C 10,6 C 7,2 C 97 % 1000,8 hPa 0,2 l/m 0 min 2 min 0 W/m 19,3 km/h (3 Bft) 97,87 %
15.11.2022 23:18 11,4 C 10,6 C 7,2 C 97 % 1000,7 hPa 0,0 l/m 0 min 2 min 0 W/m 12,9 km/h (3 Bft) 89,36 %
15.11.2022 23:20 11,4 C 10,6 C 7,2 C 97 % 1000,7 hPa 0,2 l/m 0 min 2 min 0 W/m 16,1 km/h (3 Bft) 97,87 %
15.11.2022 23:22 11,4 C 10,6 C 7,2 C 97 % 1000,7 hPa 0,2 l/m 0 min 2 min 0 W/m 19,3 km/h (3 Bft) 95,65 %
15.11.2022 23:24 11,4 C 10,6 C 7,2 C 97 % 1000,6 hPa 0,0 l/m 0 min 2 min 0 W/m 16,1 km/h (3 Bft) 93,62 %
15.11.2022 23:26 11,4 C 10,6 C 7,2 C 97 % 1000,5 hPa 0,0 l/m 0 min 2 min 0 W/m 16,1 km/h (3 Bft) 89,36 %
15.11.2022 23:28 11,4 C 10,6 C 7,2 C 97 % 1000,5 hPa 0,0 l/m 0 min 2 min 0 W/m 29,0 km/h (5 Bft) 97,87 %
15.11.2022 23:30 11,4 C 10,6 C 7,2 C 97 % 1000,6 hPa 0,0 l/m 0 min 2 min 0 W/m 12,9 km/h (3 Bft) 100,00 %
15.11.2022 23:32 11,4 C 10,6 C 7,2 C 97 % 1000,5 hPa 0,0 l/m 0 min 2 min 0 W/m 22,5 km/h (4 Bft) 95,65 %
15.11.2022 23:34 11,4 C 10,6 C 7,2 C 97 % 1000,5 hPa 0,0 l/m 0 min 2 min 0 W/m 16,1 km/h (3 Bft) 100,00 %
15.11.2022 23:36 11,4 C 10,6 C 7,2 C 97 % 1000,4 hPa 0,2 l/m 0 min 2 min 0 W/m 16,1 km/h (3 Bft) 100,00 %
15.11.2022 23:38 11,4 C 10,6 C 7,2 C 97 % 1000,4 hPa 0,0 l/m 0 min 2 min 0 W/m 16,1 km/h (3 Bft) 100,00 %
15.11.2022 23:40 11,4 C 10,6 C 7,2 C 97 % 1000,4 hPa 0,0 l/m 0 min 2 min 0 W/m 16,1 km/h (3 Bft) 95,74 %
15.11.2022 23:42 11,4 C 10,6 C 7,2 C 97 % 1000,4 hPa 0,2 l/m 0 min 2 min 0 W/m 16,1 km/h (3 Bft) 97,87 %
15.11.2022 23:44 11,4 C 10,6 C 7,2 C 97 % 1000,4 hPa 0,0 l/m 0 min 2 min 0 W/m 9,7 km/h (2 Bft) 100,00 %
15.11.2022 23:46 11,4 C 10,6 C 7,2 C 97 % 1000,4 hPa 0,0 l/m 0 min 2 min 0 W/m 9,7 km/h (2 Bft) 100,00 %
15.11.2022 23:48 11,4 C 10,6 C 7,2 C 97 % 1000,4 hPa 0,0 l/m 0 min 2 min 0 W/m 12,9 km/h (3 Bft) 97,87 %
15.11.2022 23:50 11,4 C 10,6 C 7,2 C 97 % 1000,4 hPa 0,0 l/m 0 min 2 min 0 W/m 12,9 km/h (3 Bft) 97,87 %
15.11.2022 23:52 11,4 C 10,6 C 7,2 C 97 % 1000,4 hPa 0,0 l/m 0 min 2 min 0 W/m 6,4 km/h (2 Bft) 93,62 %
15.11.2022 23:54 11,4 C 10,6 C 7,2 C 97 % 1000,3 hPa 0,0 l/m 0 min 2 min 0 W/m 16,1 km/h (3 Bft) 97,87 %
15.11.2022 23:56 11,4 C 10,6 C 7,2 C 97 % 1000,2 hPa 0,0 l/m 0 min 2 min 0 W/m 6,4 km/h (2 Bft) 97,83 %
15.11.2022 23:58 11,4 C 10,6 C 7,2 C 97 % 1000,2 hPa 0,0 l/m 0 min 2 min 0 W/m 16,1 km/h (3 Bft) 97,87 %
_ Min-Zeit 00:00 00:00 00:00 13:46 23:56 - - - - 09:14 22:34
Minimum _ 8,5 C 7,8 C 5,0 C 69 % 1000,2 hPa - - - - 0,0 km/h (0 Bft) 36,96 %
_ Max-Zeit 13:40 10:30 13:44 22:28 00:00 08:20 10:06 19:37 13:08 08:10 01:04
Maximum _ 13,9 C 15,6 C 9,4 C 97 % 1010,1 hPa 0,2 l/m 2 min 5 min 345 W/m 41,8 km/h
SO (6 Bft)
100,00 %
Durchschnitt _ 11,7 C 11,2 C 7,4 C 89 % 1006,2 hPa #4,4 l/m #1:42 h #5:04 h 95 W/m 12,8 km/h (3 Bft) 96,25 %
© 2022 W. Hausmann